KC6NLX-13 Weather Reports


time (UTC)temp
F
wind
direction
speed
knots
gust
knots
rain 1hr
in
rain 24hr
in
rain mn
in
humidity
%
barometer
mb
20260507002906 53 332 1.7 3.5 0.00 0.69 0.06 56 1013.6
20260507002806 53 322 0.0 3.5 0.00 0.69 0.06 56 1013.6
20260507002706 53 333 0.0 3.5 0.00 0.69 0.06 56 1013.6
20260507002606 53 336 1.7 3.5 0.00 0.69 0.06 56 1013.6
20260507002506 54 307 1.7 4.3 0.00 0.69 0.06 55 1013.6
20260507002406 54 312 0.9 4.3 0.00 0.69 0.06 55 1013.6
20260507002306 54 305 0.9 4.3 0.00 0.69 0.06 55 1013.6
20260507002206 54 325 0.0 4.3 0.00 0.69 0.06 55 1013.6
20260507002106 54 285 0.0 4.3 0.00 0.69 0.06 55 1013.6
20260507002006 54 285 0.9 4.3 0.00 0.69 0.06 55 1013.6
20260507001906 54 294 2.6 4.3 0.00 0.69 0.06 55 1013.6
20260507001806 54 315 2.6 4.3 0.00 0.69 0.06 55 1013.6
20260507001706 54 309 1.7 4.3 0.00 0.69 0.06 54 1013.6
20260507001606 54 336 1.7 4.3 0.00 0.69 0.06 54 1013.6
20260507001506 54 333 1.7 4.3 0.00 0.69 0.06 54 1013.6
20260507001406 54 294 2.6 5.2 0.00 0.69 0.06 54 1013.6
20260507001306 54 326 3.5 5.2 0.00 0.69 0.06 54 1013.6
20260507001206 54 305 2.6 5.2 0.00 0.69 0.06 54 1013.6
20260507001106 54 267 1.7 6.1 0.00 0.69 0.06 54 1013.6
20260507001006 54 297 1.7 6.1 0.00 0.69 0.06 54 1013.6
20260507000907 54 307 1.7 6.1 0.00 0.69 0.06 54 1013.6
20260507000806 54 328 1.7 6.1 0.00 0.69 0.06 54 1013.6
20260507000706 54 295 2.6 6.1 0.00 0.69 0.06 54 1013.6
20260507000606 54 311 3.5 6.1 0.00 0.69 0.06 54 1013.6
20260507000506 54 309 4.3 6.1 0.00 0.69 0.06 53 1013.6
20260507000406 54 318 1.7 6.1 0.00 0.69 0.06 54 1013.6
20260507000306 54 312 3.5 6.1 0.00 0.69 0.06 53 1013.6
20260507000206 54 343 2.6 6.1 0.00 0.69 0.06 53 1013.6
20260507000106 55 308 0.9 7.0 0.00 0.69 0.06 54 1013.6
20260507000006 55 333 0.0 7.0 0.00 0.69 0.06 54 1013.6
20260506235906 55 262 0.0 7.0 0.00 0.69 0.06 54 1013.6
20260506235806 55 307 0.0 7.0 0.00 0.69 0.06 54 1013.6
20260506235706 55 298 1.7 7.0 0.00 0.69 0.06 54 1013.6
20260506235606 55 270 0.9 7.0 0.00 0.69 0.06 53 1013.6
20260506235506 55 300 1.7 7.0 0.00 0.69 0.06 52 1013.6
20260506235406 55 283 1.7 7.0 0.00 0.69 0.06 53 1013.6
20260506235307 55 280 1.7 7.0 0.00 0.69 0.06 52 1013.6
20260506235206 55 332 3.5 7.0 0.00 0.69 0.06 52 1013.6
20260506235106 55 274 3.5 6.1 0.00 0.69 0.06 51 1013.6
20260506235006 55 339 3.5 6.1 0.00 0.69 0.06 51 1013.6
20260506234906 55 283 4.3 6.1 0.00 0.69 0.06 51 1013.6
20260506234806 55 304 1.7 5.2 0.00 0.69 0.06 52 1013.6
20260506234706 55 301 2.6 5.2 0.00 0.69 0.06 52 1013.6
20260506234606 55 280 1.7 5.2 0.00 0.69 0.06 53 1013.6
20260506234506 55 253 1.7 5.2 0.00 0.69 0.06 53 1013.6
20260506234406 55 290 3.5 5.2 0.00 0.69 0.06 52 1013.6
20260506234306 55 325 2.6 4.3 0.00 0.69 0.06 53 1013.6
20260506234206 55 330 0.9 4.3 0.00 0.69 0.06 54 1013.6
20260506234106 55 323 1.7 4.3 0.00 0.69 0.06 53 1013.6
20260506234006 55 293 2.6 5.2 0.00 0.69 0.06 53 1013.6
20260506233906 55 332 2.6 5.2 0.00 0.69 0.06 54 1013.6
20260506233806 55 328 2.6 6.1 0.00 0.69 0.06 53 1013.6
20260506233706 55 339 1.7 6.1 0.00 0.69 0.06 54 1013.6
20260506233606 55 314 0.9 6.1 0.00 0.69 0.06 53 1013.6
20260506233506 55 316 0.9 6.1 0.00 0.69 0.06 53 1013.6
20260506233406 54 322 3.5 6.1 0.00 0.69 0.06 53 1013.6
20260506233306 54 336 3.5 6.1 0.00 0.69 0.06 53 1013.6
20260506233206 54 326 3.5 6.1 0.00 0.69 0.06 53 1013.6
20260506233106 54 345 3.5 6.1 0.00 0.69 0.06 53 1013.6
20260506233006 54 290 1.7 6.1 0.00 0.69 0.06 53 1013.6
20260506232906 54 328 4.3 6.1 0.00 0.69 0.06 52 1013.6
20260506232806 54 4 5.2 6.1 0.00 0.69 0.06 53 1013.6
20260506232707 54 309 1.7 6.1 0.00 0.69 0.06 53 1013.6
20260506232606 54 271 3.5 6.1 0.00 0.69 0.06 53 1013.6
20260506232506 54 281 3.5 6.1 0.00 0.69 0.06 53 1013.6
20260506232407 54 340 3.5 6.1 0.00 0.69 0.06 53 1013.6
20260506232307 54 308 3.5 6.1 0.00 0.69 0.06 53 1013.6
20260506232206 54 273 3.5 6.1 0.00 0.69 0.06 53 1013.6
20260506232106 54 294 1.7 6.1 0.00 0.69 0.06 54 1013.6
20260506232006 54 350 2.6 6.1 0.00 0.69 0.06 54 1013.6
20260506231907 54 328 2.6 6.1 0.00 0.69 0.06 54 1013.6
20260506231806 54 322 0.9 6.1 0.00 0.69 0.06 54 1013.6
20260506231706 55 309 0.0 6.1 0.00 0.69 0.06 54 1013.6
20260506231607 55 309 0.9 6.1 0.00 0.69 0.06 53 1013.6
20260506231506 54 283 0.9 6.1 0.00 0.69 0.06 53 1013.6
20260506231407 54 276 2.6 6.1 0.00 0.69 0.06 53 1013.6
20260506231306 54 305 3.5 6.1 0.00 0.69 0.06 53 1013.6
20260506231206 54 300 3.5 4.3 0.00 0.69 0.06 53 1013.6
20260506231106 54 263 0.0 4.3 0.00 0.69 0.06 53 1013.6
20260506231006 54 291 1.7 4.3 0.00 0.69 0.06 53 1013.6
20260506230907 54 305 0.9 5.2 0.00 0.69 0.06 53 1013.6
20260506230806 54 302 0.9 5.2 0.00 0.69 0.06 54 1013.6
20260506230706 54 304 0.9 5.2 0.00 0.69 0.06 53 1013.6
20260506230606 54 297 1.7 5.2 0.00 0.69 0.06 53 1013.6
20260506230507 54 328 0.0 5.2 0.00 0.69 0.06 53 1013.6
20260506230406 54 312 0.9 6.1 0.00 0.69 0.06 53 1013.6
20260506230307 54 307 0.9 6.1 0.00 0.69 0.06 53 1013.6
20260506230206 54 308 1.7 6.1 0.00 0.69 0.06 52 1013.6
20260506230106 54 297 2.6 6.1 0.00 0.69 0.06 51 1013.6
20260506230006 54 298 3.5 6.1 0.00 0.69 0.06 52 1013.6
20260506225906 54 322 2.6 7.0 0.00 0.69 0.06 52 1013.6
20260506225806 54 302 1.7 7.0 0.00 0.69 0.06 53 1013.6
20260506225707 54 314 0.9 7.0 0.00 0.69 0.06 52 1013.9
20260506225607 54 319 3.5 7.0 0.00 0.69 0.06 52 1013.6
20260506225506 54 338 4.3 7.0 0.00 0.69 0.06 52 1013.6
20260506225406 54 319 1.7 7.0 0.00 0.69 0.06 53 1013.6
20260506225306 54 316 3.5 7.0 0.00 0.69 0.06 52 1013.6
20260506225206 54 339 1.7 7.0 0.00 0.69 0.06 52 1013.9
20260506225107 54 332 3.5 7.0 0.00 0.69 0.06 51 1013.9
20260506225007 54 316 4.3 7.0 0.00 0.69 0.06 51 1013.9
20260506224906 54 311 1.7 7.0 0.00 0.69 0.06 52 1013.9
20260506224806 54 287 1.7 7.0 0.00 0.69 0.06 51 1013.9
20260506224707 54 297 2.6 7.0 0.00 0.69 0.06 51 1013.9
20260506224607 54 297 4.3 7.0 0.00 0.69 0.06 51 1013.9
20260506224506 54 316 2.6 7.0 0.00 0.69 0.06 51 1013.9
20260506224406 54 297 4.3 7.0 0.00 0.69 0.06 51 1013.9
20260506224306 54 335 4.3 7.0 0.00 0.69 0.06 51 1013.9
20260506224206 54 295 3.5 7.0 0.00 0.69 0.06 51 1013.9
20260506224107 54 345 3.5 7.8 0.00 0.69 0.06 50 1013.9
20260506224006 54 312 4.3 7.8 0.00 0.69 0.06 51 1013.9
20260506223906 54 335 4.3 7.8 0.00 0.69 0.06 51 1013.9
20260506223807 54 276 3.5 7.8 0.00 0.69 0.06 51 1014.3
20260506223707 54 293 1.7 7.8 0.00 0.69 0.06 50 1014.3
20260506223607 54 264 3.5 7.8 0.00 0.69 0.06 50 1014.3
20260506223506 54 266 3.5 7.8 0.00 0.69 0.06 50 1014.3
20260506223406 54 269 3.5 7.8 0.00 0.69 0.06 50 1014.3
20260506223306 54 311 2.6 7.8 0.00 0.69 0.06 50 1014.3
20260506223207 54 288 4.3 7.8 0.00 0.69 0.06 50 1014.3
20260506223107 54 328 4.3 7.0 0.00 0.69 0.06 50 1014.3
20260506223007 54 274 2.6 7.0 0.00 0.69 0.06 51 1014.3
20260506222906 55 260 3.5 7.0 0.00 0.69 0.06 50 1014.3
20260506222806 55 290 3.5 7.0 0.00 0.69 0.06 50 1014.3
20260506222706 55 302 4.3 7.0 0.00 0.69 0.06 50 1014.3
20260506222606 55 284 2.6 7.0 0.00 0.69 0.06 51 1013.9
20260506222507 55 294 1.7 7.0 0.00 0.69 0.06 51 1013.9
20260506222407 55 301 1.7 10.4 0.00 0.69 0.06 50 1013.9
20260506222307 54 281 3.5 10.4 0.00 0.69 0.06 50 1013.9
20260506222207 55 293 4.3 10.4 0.00 0.69 0.06 50 1013.9
20260506222107 55 304 4.3 10.4 0.00 0.69 0.06 50 1013.9
20260506222007 55 359 2.6 10.4 0.00 0.69 0.06 50 1013.9
20260506221907 55 319 1.7 10.4 0.00 0.69 0.06 50 1013.9
20260506221807 55 312 2.6 10.4 0.00 0.69 0.06 50 1013.9
20260506221707 54 311 3.5 10.4 0.00 0.69 0.06 50 1013.9
20260506221606 55 349 3.5 10.4 0.00 0.69 0.06 49 1013.9
20260506221506 54 281 5.2 10.4 0.00 0.69 0.06 49 1013.9
20260506221406 55 305 4.3 7.0 0.00 0.69 0.06 50 1013.9
20260506221306 55 318 5.2 7.0 0.00 0.69 0.06 50 1013.9
20260506221206 55 335 2.6 8.7 0.00 0.69 0.06 50 1013.9
20260506221107 54 336 4.3 8.7 0.00 0.69 0.06 49 1013.6
20260506221006 55 326 2.6 8.7 0.00 0.69 0.06 50 1013.6
20260506220907 55 288 3.5 8.7 0.00 0.69 0.06 49 1013.6
20260506220807 55 284 2.6 8.7 0.00 0.69 0.06 49 1013.6
20260506220706 55 277 4.3 8.7 0.00 0.69 0.06 48 1013.6
20260506220606 55 263 2.6 8.7 0.00 0.69 0.06 49 1013.6
20260506220507 55 270 2.6 8.7 0.00 0.69 0.06 49 1013.6
20260506220407 55 288 2.6 8.7 0.00 0.69 0.06 49 1013.6
20260506220307 55 329 5.2 8.7 0.00 0.69 0.06 48 1013.6
20260506220207 55 281 3.5 8.7 0.00 0.69 0.06 48 1013.6
20260506220106 55 283 2.6 8.7 0.00 0.69 0.06 50 1013.6
20260506220007 55 308 0.9 8.7 0.00 0.69 0.06 50 1013.6
20260506215907 55 314 3.5 8.7 0.00 0.69 0.06 49 1013.6
20260506215806 55 294 4.3 8.7 0.00 0.69 0.06 49 1013.6
20260506215707 55 274 2.6 8.7 0.00 0.69 0.06 49 1013.6
20260506215607 55 291 4.3 8.7 0.00 0.69 0.06 48 1013.6
20260506215506 55 295 4.3 8.7 0.00 0.69 0.06 48 1013.6
20260506215407 55 318 4.3 8.7 0.00 0.69 0.06 48 1013.6
20260506215307 55 321 4.3 8.7 0.00 0.69 0.06 47 1013.6
20260506215206 55 267 1.7 8.7 0.00 0.69 0.06 50 1013.6
20260506215107 55 322 1.7 8.7 0.00 0.69 0.06 49 1013.6
20260506215007 55 283 4.3 8.7 0.00 0.69 0.06 48 1013.6
20260506214907 55 319 2.6 8.7 0.00 0.69 0.06 48 1013.6
20260506214807 55 302 5.2 8.7 0.00 0.69 0.06 48 1013.6
20260506214707 55 290 5.2 8.7 0.00 0.69 0.06 48 1013.6
20260506214607 55 323 0.9 8.7 0.00 0.69 0.06 49 1013.6
20260506214507 55 328 0.9 8.7 0.00 0.69 0.06 48 1013.6
20260506214406 55 308 2.6 8.7 0.00 0.69 0.06 47 1013.6
20260506214307 54 316 5.2 8.7 0.00 0.69 0.06 46 1013.6
20260506214207 55 347 3.5 8.7 0.00 0.69 0.06 47 1013.6
20260506214107 55 345 4.3 8.7 0.00 0.69 0.06 47 1013.6
20260506214007 54 314 6.1 8.7 0.00 0.69 0.06 46 1013.6
20260506213907 55 318 5.2 8.7 0.00 0.69 0.06 47 1013.6
20260506213807 55 319 6.1 7.8 0.00 0.69 0.06 47 1013.6
20260506213707 55 343 4.3 7.8 0.00 0.69 0.06 48 1013.6
20260506213607 55 305 4.3 6.1 0.00 0.69 0.06 48 1013.6
20260506213507 55 346 4.3 6.1 0.00 0.69 0.06 48 1013.6
20260506213407 55 290 4.3 6.1 0.00 0.69 0.06 48 1013.6
20260506213307 55 290 1.7 6.1 0.00 0.69 0.06 48 1013.6
20260506213207 55 281 0.9 6.1 0.00 0.69 0.06 48 1013.6
20260506213107 55 281 2.6 6.1 0.00 0.69 0.06 47 1013.6
20260506213006 55 300 2.6 6.1 0.00 0.69 0.06 47 1013.6
20260506212907 55 218 1.7 6.1 0.00 0.69 0.06 47 1013.6
20260506212807 55 300 3.5 7.8 0.00 0.69 0.06 46 1013.6
20260506212706 55 291 3.5 7.8 0.00 0.69 0.06 45 1013.6
20260506212607 55 284 1.7 7.8 0.00 0.69 0.06 45 1013.6
20260506212507 55 266 0.9 7.8 0.00 0.69 0.06 45 1013.6
20260506212406 55 198 1.7 7.8 0.00 0.69 0.06 44 1013.6
20260506212307 55 277 2.6 7.8 0.00 0.69 0.06 45 1013.6
20260506212206 55 280 1.7 7.8 0.00 0.69 0.06 46 1013.2
20260506212107 55 287 2.6 7.8 0.00 0.69 0.06 46 1013.2
20260506212007 55 328 3.5 7.8 0.00 0.69 0.06 46 1013.2
20260506211907 55 312 5.2 7.8 0.00 0.69 0.06 45 1013.2
20260506211807 55 283 3.5 7.8 0.00 0.69 0.06 46 1013.2
20260506211707 55 274 3.5 7.8 0.00 0.69 0.06 46 1013.2
20260506211607 55 273 2.6 8.7 0.00 0.69 0.06 49 1013.2
20260506211507 55 284 0.9 8.7 0.00 0.69 0.06 49 1013.2
20260506211407 55 308 1.7 8.7 0.00 0.69 0.06 48 1013.2
20260506211307 55 201 2.6 8.7 0.00 0.69 0.06 48 1013.2
20260506211207 55 301 3.5 8.7 0.00 0.69 0.06 48 1013.2
20260506211107 55 285 1.7 9.6 0.00 0.69 0.06 50 1013.2
20260506211007 55 326 3.5 9.6 0.00 0.69 0.06 49 1013.2
20260506210907 55 326 3.5 9.6 0.00 0.69 0.06 49 1013.2
20260506210807 55 318 4.3 9.6 0.00 0.69 0.06 48 1013.2
20260506210707 55 307 5.2 9.6 0.00 0.69 0.06 47 1013.2
20260506210607 55 350 4.3 9.6 0.00 0.69 0.06 48 1013.2
20260506210507 55 1 3.5 9.6 0.00 0.69 0.06 48 1013.2
20260506210407 55 322 3.5 9.6 0.00 0.69 0.06 48 1013.2
20260506210307 55 297 4.3 9.6 0.00 0.69 0.06 47 1013.2
20260506210207 55 314 6.1 9.6 0.00 0.69 0.06 48 1013.2
20260506210106 55 311 4.3 7.8 0.00 0.69 0.06 48 1013.2
20260506210007 55 284 5.2 8.7 0.00 0.69 0.06 50 1013.2
20260506205907 55 329 3.5 8.7 0.00 0.69 0.06 49 1013.2
20260506205807 55 298 3.5 8.7 0.00 0.69 0.06 49 1013.2
20260506205707 55 276 4.3 8.7 0.00 0.69 0.06 48 1013.2
20260506205607 55 295 3.5 8.7 0.00 0.69 0.06 49 1013.2
20260506205506 55 280 5.2 9.6 0.00 0.69 0.06 48 1013.2
20260506205406 55 308 3.5 9.6 0.00 0.69 0.06 49 1013.2
20260506205307 55 340 4.3 9.6 0.00 0.69 0.06 48 1013.6
20260506205207 55 300 5.2 9.6 0.00 0.69 0.06 48 1013.6
20260506205107 55 322 6.1 9.6 0.00 0.69 0.06 48 1013.2
20260506205007 55 340 4.3 9.6 0.00 0.69 0.06 48 1013.6
20260506204907 55 309 5.2 9.6 0.00 0.69 0.06 49 1013.6
20260506204807 55 298 3.5 9.6 0.00 0.69 0.06 50 1013.6
20260506204707 55 325 4.3 9.6 0.00 0.69 0.06 50 1013.2
20260506204607 55 300 6.1 9.6 0.00 0.69 0.06 49 1013.2
20260506204507 55 338 5.2 7.8 0.00 0.69 0.06 49 1013.2
20260506204407 55 284 1.7 7.0 0.00 0.69 0.06 51 1013.2
20260506204307 55 285 5.2 7.8 0.00 0.69 0.06 51 1013.2
20260506204207 55 304 3.5 7.8 0.00 0.69 0.06 52 1013.2
20260506204107 55 321 3.5 7.8 0.00 0.69 0.06 52 1013.2
20260506204007 55 330 3.5 7.8 0.00 0.69 0.06 51 1013.2
20260506203907 55 311 5.2 7.8 0.00 0.69 0.06 50 1013.2
20260506203807 55 314 4.3 7.8 0.00 0.69 0.06 51 1013.2
20260506203707 55 336 3.5 7.8 0.00 0.69 0.06 51 1013.2
20260506203607 55 329 3.5 7.8 0.00 0.69 0.06 51 1013.2
20260506203507 55 315 4.3 8.7 0.00 0.69 0.06 52 1013.2
20260506203407 55 343 5.2 8.7 0.00 0.69 0.06 52 1013.2
20260506203307 55 287 4.3 8.7 0.00 0.69 0.06 52 1013.2
20260506203207 55 276 0.9 8.7 0.00 0.69 0.06 52 1013.2
20260506203107 55 298 0.9 8.7 0.00 0.69 0.06 52 1013.2
20260506203007 55 293 2.6 9.6 0.00 0.69 0.06 50 1013.2
20260506202907 55 280 5.2 9.6 0.00 0.69 0.06 50 1013.2
20260506202807 55 262 2.6 9.6 0.00 0.69 0.06 51 1013.2
20260506202707 55 285 3.5 9.6 0.00 0.69 0.06 49 1013.2
20260506202607 55 297 5.2 9.6 0.00 0.69 0.06 49 1013.2
20260506202507 55 276 2.6 9.6 0.00 0.69 0.06 51 1013.2
20260506202407 55 342 2.6 9.6 0.00 0.69 0.06 50 1013.2
20260506202307 55 322 4.3 9.6 0.00 0.69 0.06 50 1013.6
20260506202207 55 300 5.2 9.6 0.00 0.69 0.06 50 1013.6
20260506202107 55 308 4.3 9.6 0.00 0.69 0.06 51 1013.6
20260506202007 55 297 4.3 8.7 0.00 0.69 0.06 52 1013.2
20260506201907 55 323 5.2 7.8 0.00 0.69 0.06 52 1013.2
20260506201807 55 339 4.3 7.0 0.00 0.69 0.06 52 1013.2
20260506201706 55 1 4.3 7.0 0.00 0.69 0.06 52 1013.2
20260506201607 55 350 4.3 8.7 0.00 0.69 0.06 51 1013.6
20260506201507 55 4 4.3 8.7 0.00 0.69 0.06 51 1013.2
20260506201407 55 347 4.3 8.7 0.00 0.69 0.06 51 1013.2
20260506201307 55 329 1.7 8.7 0.00 0.69 0.06 52 1013.2
20260506201207 55 284 3.5 8.7 0.00 0.69 0.06 51 1013.2
20260506201107 55 3 4.3 8.7 0.00 0.69 0.06 52 1013.2
20260506201007 55 20 3.5 8.7 0.00 0.69 0.06 52 1013.2
20260506200907 55 300 2.6 8.7 0.00 0.69 0.06 51 1013.2
20260506200807 55 297 5.2 8.7 0.00 0.69 0.06 51 1013.2
20260506200707 55 304 5.2 8.7 0.00 0.69 0.06 51 1013.2
20260506200607 55 298 5.2 8.7 0.00 0.69 0.06 51 1013.2
20260506200507 55 325 5.2 8.7 0.00 0.69 0.06 51 1013.2
20260506200407 55 301 6.1 8.7 0.00 0.69 0.06 50 1013.2
20260506200307 55 323 3.5 7.0 0.00 0.69 0.06 51 1013.2
20260506200207 55 336 3.5 7.0 0.00 0.69 0.06 52 1013.2
20260506200107 55 319 5.2 7.0 0.00 0.69 0.06 51 1013.2
20260506200007 55 345 3.5 7.0 0.00 0.69 0.06 51 1013.2
20260506195907 55 359 5.2 7.0 0.00 0.69 0.06 51 1013.2
20260506195807 55 314 2.6 7.0 0.00 0.69 0.06 51 1013.2
20260506195707 55 294 2.6 7.0 0.00 0.69 0.06 52 1013.2
20260506195607 55 284 4.3 7.0 0.00 0.69 0.06 51 1013.2
20260506195507 55 298 4.3 7.0 0.00 0.69 0.06 52 1013.2
20260506195407 55 311 2.6 7.0 0.00 0.69 0.06 53 1013.2
20260506195307 55 346 0.9 7.0 0.00 0.69 0.06 52 1013.2
20260506195207 55 274 1.7 7.0 0.00 0.69 0.06 52 1013.2
20260506195107 55 290 3.5 7.0 0.00 0.69 0.06 52 1013.2
20260506195007 55 319 1.7 7.8 0.00 0.69 0.06 52 1013.2
20260506194907 55 297 2.6 7.8 0.00 0.69 0.06 51 1013.2
20260506194807 55 316 3.5 7.8 0.00 0.69 0.06 51 1013.2
20260506194707 54 302 4.3 7.8 0.00 0.69 0.06 50 1013.2
20260506194607 55 293 4.3 7.8 0.00 0.69 0.06 51 1013.2
20260506194507 55 347 5.2 7.8 0.00 0.69 0.06 51 1013.2
20260506194407 55 316 3.5 7.8 0.00 0.69 0.06 52 1013.2
20260506194307 55 332 3.5 7.8 0.00 0.69 0.06 51 1013.2
20260506194207 55 276 2.6 7.8 0.00 0.69 0.06 52 1013.2
20260506194107 55 308 4.3 7.8 0.00 0.69 0.06 51 1013.2
20260506194007 55 280 4.3 7.0 0.00 0.69 0.06 52 1013.2
20260506193907 55 295 3.5 7.0 0.00 0.69 0.06 52 1013.2
20260506193807 55 281 3.5 5.2 0.00 0.69 0.06 51 1013.2
20260506193707 55 278 2.6 5.2 0.00 0.69 0.06 51 1013.2
20260506193607 55 291 3.5 5.2 0.00 0.69 0.06 51 1013.6
20260506193507 55 318 0.9 5.2 0.00 0.69 0.06 52 1013.2
20260506193407 55 330 1.7 5.2 0.00 0.69 0.06 53 1013.2
20260506193307 55 271 3.5 5.2 0.00 0.69 0.06 52 1013.2
20260506193207 55 294 2.6 5.2 0.00 0.69 0.06 51 1013.2
20260506193107 55 211 2.6 7.0 0.00 0.69 0.06 53 1013.2
20260506193007 55 305 2.6 7.0 0.00 0.69 0.06 52 1013.2
20260506192907 55 335 2.6 8.7 0.00 0.69 0.06 52 1013.2
20260506192807 55 298 2.6 8.7 0.00 0.69 0.06 52 1013.2
20260506192707 55 281 2.6 8.7 0.00 0.69 0.06 52 1013.6
20260506192607 55 301 1.7 8.7 0.00 0.69 0.06 52 1013.6
20260506192507 55 276 1.7 8.7 0.00 0.69 0.06 51 1013.6
20260506192407 55 264 2.6 8.7 0.00 0.69 0.06 51 1013.6
20260506192307 54 300 3.5 8.7 0.00 0.69 0.06 50 1013.6
20260506192207 54 295 3.5 8.7 0.00 0.69 0.06 50 1013.6
20260506192107 54 285 5.2 8.7 0.00 0.69 0.06 50 1013.6
20260506192007 54 277 4.3 8.7 0.00 0.69 0.06 50 1013.6
20260506191907 54 347 4.3 8.7 0.00 0.69 0.06 49 1013.6
20260506191807 54 264 4.3 8.7 0.00 0.69 0.06 50 1013.6
20260506191707 54 359 4.3 8.7 0.00 0.69 0.06 49 1013.6
20260506191607 54 318 5.2 8.7 0.00 0.69 0.06 48 1013.6
20260506191507 54 312 4.3 7.8 0.00 0.69 0.06 49 1013.6
20260506191407 55 318 4.3 7.8 0.00 0.69 0.06 48 1013.6
20260506191307 55 276 3.5 7.8 0.00 0.69 0.06 49 1013.6
20260506191207 55 309 3.5 7.8 0.00 0.69 0.06 50 1013.6
20260506191107 55 357 5.2 7.8 0.00 0.69 0.06 49 1013.6
20260506191007 55 300 3.5 7.8 0.00 0.69 0.06 50 1013.2
20260506190907 55 290 2.6 7.8 0.00 0.69 0.06 50 1013.2
20260506190807 55 274 2.6 8.7 0.00 0.69 0.06 50 1013.2
20260506190707 55 315 3.5 8.7 0.00 0.69 0.06 50 1013.6
20260506190607 55 308 3.5 8.7 0.00 0.69 0.06 50 1013.2
20260506190507 55 302 1.7 8.7 0.00 0.69 0.06 49 1013.2
20260506190407 55 263 4.3 8.7 0.00 0.69 0.06 48 1013.2
20260506190307 54 316 5.2 8.7 0.00 0.69 0.06 49 1013.2
20260506190207 54 326 6.1 8.7 0.00 0.69 0.06 48 1013.2
20260506190107 54 328 5.2 8.7 0.00 0.69 0.06 48 1013.2
20260506190007 55 312 5.2 8.7 0.00 0.69 0.06 48 1013.2
20260506185907 55 274 4.3 8.7 0.00 0.69 0.06 48 1013.2
20260506185807 55 311 2.6 7.8 0.00 0.69 0.06 50 1013.2
20260506185707 55 315 1.7 7.8 0.00 0.69 0.06 49 1013.2
20260506185607 55 305 2.6 7.8 0.00 0.69 0.06 49 1013.2
20260506185507 55 263 3.5 7.8 0.00 0.69 0.06 49 1013.2
20260506185407 55 291 2.6 7.8 0.00 0.69 0.06 48 1013.2
20260506185307 55 325 4.3 7.8 0.00 0.69 0.06 46 1013.2
20260506185207 55 270 3.5 7.8 0.00 0.69 0.06 48 1013.2
20260506185107 55 311 5.2 7.8 0.00 0.69 0.06 47 1013.6
20260506185007 55 267 4.3 7.8 0.00 0.69 0.06 47 1013.6
20260506184907 55 269 4.3 7.8 0.00 0.69 0.06 48 1013.2
20260506184807 55 291 2.6 7.8 0.00 0.69 0.06 49 1013.2
20260506184707 55 284 5.2 7.8 0.00 0.69 0.06 47 1013.2
20260506184607 55 297 3.5 7.8 0.00 0.69 0.06 50 1013.2
20260506184507 55 280 0.9 7.0 0.00 0.69 0.06 50 1013.2
20260506184407 55 300 3.5 7.0 0.00 0.69 0.06 49 1013.2
20260506184307 55 293 1.7 7.0 0.00 0.69 0.06 51 1013.2
20260506184207 55 281 2.6 7.8 0.00 0.69 0.06 51 1013.2
20260506184107 55 329 3.5 7.8 0.00 0.69 0.06 50 1013.2
20260506184007 55 283 3.5 7.8 0.00 0.69 0.06 50 1013.2
20260506183907 55 295 3.5 7.8 0.00 0.69 0.06 51 1013.2
20260506183807 55 304 3.5 7.8 0.00 0.69 0.06 51 1013.2
20260506183707 55 304 4.3 7.8 0.00 0.69 0.06 50 1013.2
20260506183607 55 300 3.5 7.8 0.00 0.69 0.06 50 1013.2
20260506183507 55 285 2.6 7.8 0.00 0.69 0.06 50 1013.2
20260506183407 55 270 3.5 7.8 0.00 0.69 0.06 50 1013.2
20260506183307 55 281 2.6 7.8 0.00 0.69 0.06 50 1013.2
20260506183207 55 305 2.6 7.0 0.00 0.69 0.06 50 1013.2
20260506183107 55 330 3.5 8.7 0.00 0.69 0.06 49 1013.2
20260506183007 55 315 1.7 8.7 0.00 0.69 0.06 49 1013.2
20260506182907 55 249 1.7 8.7 0.00 0.69 0.06 49 1013.2
20260506182807 55 335 0.9 8.7 0.00 0.69 0.06 49 1013.2
20260506182707 55 335 2.6 8.7 0.00 0.69 0.06 48 1013.2
20260506182607 55 294 3.5 8.7 0.00 0.69 0.06 49 1013.2
20260506182507 55 301 4.3 8.7 0.00 0.69 0.06 50 1013.2
20260506182407 55 315 4.3 8.7 0.00 0.69 0.06 49 1013.2
20260506182307 55 287 3.5 8.7 0.00 0.69 0.06 50 1013.2
20260506182207 55 288 3.5 8.7 0.00 0.69 0.06 49 1013.2
20260506182107 55 285 5.2 7.8 0.00 0.69 0.06 48 1012.9
20260506182007 55 278 5.2 7.0 0.00 0.69 0.06 49 1012.9
20260506181907 55 307 3.5 7.0 0.00 0.69 0.06 49 1012.9
20260506181807 55 276 3.5 7.8 0.00 0.69 0.06 50 1012.9
20260506181707 55 332 2.6 7.8 0.00 0.69 0.06 49 1012.9
20260506181607 55 284 1.7 7.8 0.00 0.69 0.06 50 1012.9
20260506181507 55 315 3.5 7.8 0.00 0.69 0.06 50 1012.9
20260506181407 55 359 4.3 7.8 0.00 0.69 0.06 49 1013.2
20260506181307 55 336 2.6 7.8 0.00 0.69 0.06 51 1013.2
20260506181207 55 309 4.3 7.8 0.00 0.69 0.06 50 1013.2
20260506181107 55 340 4.3 7.8 0.00 0.69 0.06 50 1013.2
20260506181007 55 336 5.2 7.8 0.00 0.69 0.06 50 1013.2
20260506180907 55 339 6.1 7.8 0.00 0.69 0.06 49 1013.2
20260506180807 55 302 4.3 7.8 0.00 0.69 0.06 49 1013.2
20260506180707 55 291 4.3 7.8 0.00 0.69 0.06 49 1013.2
20260506180607 54 326 5.2 7.8 0.00 0.69 0.06 48 1013.2
20260506180507 55 280 5.2 7.8 0.00 0.69 0.06 49 1013.2
20260506180407 55 325 3.5 7.8 0.00 0.69 0.06 49 1013.2
20260506180307 55 294 2.6 7.0 0.00 0.69 0.06 49 1013.2
20260506180207 55 316 1.7 7.0 0.00 0.69 0.06 50 1013.2
20260506180107 55 294 2.6 7.0 0.00 0.69 0.06 49 1013.6
20260506180007 55 276 2.6 7.0 0.00 0.69 0.06 50 1013.6
20260506175907 55 307 2.6 7.0 0.00 0.69 0.06 50 1013.6
20260506175807 55 236 3.5 7.0 0.00 0.69 0.06 50 1013.6
20260506175707 55 273 3.5 7.0 0.00 0.69 0.06 50 1013.6
20260506175607 55 293 3.5 7.8 0.00 0.69 0.06 50 1013.6
20260506175507 55 273 4.3 7.8 0.00 0.69 0.06 49 1013.6
20260506175407 55 287 3.5 8.7 0.00 0.69 0.06 52 1013.6
20260506175307 55 339 2.6 13.0 0.00 0.69 0.06 52 1013.6
20260506175207 55 287 2.6 13.0 0.00 0.69 0.06 53 1013.6
20260506175107 55 298 1.7 13.0 0.00 0.69 0.06 52 1013.6
20260506175007 55 304 3.5 13.0 0.00 0.69 0.06 52 1013.2
20260506174907 55 312 4.3 13.0 0.00 0.69 0.06 51 1013.2
20260506174807 55 308 3.5 13.0 0.00 0.69 0.06 51 1013.2
20260506174707 54 345 6.1 13.0 0.00 0.69 0.06 49 1013.2
20260506174607 55 343 6.1 13.0 0.00 0.69 0.06 49 1013.2
20260506174507 55 340 7.0 13.0 0.00 0.69 0.06 50 1013.2
20260506174407 55 346 7.8 13.0 0.00 0.69 0.06 51 1013.6
20260506174307 55 13 5.2 9.6 0.00 0.69 0.06 52 1013.6
20260506174207 55 325 3.5 7.8 0.00 0.69 0.06 52 1013.6
20260506174107 55 276 5.2 7.8 0.00 0.69 0.06 51 1013.6
20260506174007 55 273 3.5 7.8 0.00 0.69 0.06 52 1013.6
20260506173907 55 195 1.7 7.8 0.00 0.69 0.06 52 1013.6
20260506173807 55 322 3.5 8.7 0.00 0.69 0.06 51 1013.6
20260506173707 55 312 5.2 8.7 0.00 0.69 0.06 50 1013.6
20260506173607 55 338 5.2 8.7 0.00 0.69 0.06 51 1013.6
20260506173507 55 280 3.5 8.7 0.00 0.69 0.06 50 1013.6
20260506173407 55 304 4.3 8.7 0.00 0.69 0.06 50 1013.6
20260506173307 55 322 4.3 8.7 0.00 0.69 0.06 50 1013.2
20260506173207 55 269 3.5 8.7 0.00 0.69 0.06 50 1013.2
20260506173107 55 264 4.3 8.7 0.00 0.69 0.06 50 1013.2
20260506173007 55 287 4.3 9.6 0.00 0.69 0.06 51 1013.2
20260506172907 55 283 5.2 10.4 0.00 0.69 0.06 51 1013.2
20260506172807 56 242 4.3 10.4 0.00 0.69 0.06 52 1013.2
20260506172707 55 354 6.1 11.3 0.00 0.69 0.06 51 1013.2
20260506172607 55 354 5.2 11.3 0.00 0.69 0.06 51 1013.2
20260506172507 55 311 6.1 11.3 0.00 0.69 0.06 50 1013.2
20260506172407 55 345 5.2 11.3 0.00 0.69 0.06 52 1013.2
20260506172307 55 309 6.1 11.3 0.00 0.69 0.06 53 1013.2
20260506172207 55 338 6.1 11.3 0.00 0.69 0.06 52 1013.2
20260506172107 55 340 6.1 11.3 0.00 0.69 0.06 53 1013.2
20260506172007 55 332 6.1 11.3 0.00 0.69 0.06 53 1012.9
20260506171907 56 328 3.5 13.0 0.00 0.69 0.06 53 1012.9
20260506171807 55 319 8.7 13.0 0.00 0.69 0.06 51 1012.9
20260506171707 55 343 7.8 13.0 0.00 0.69 0.06 50 1012.9
20260506171607 56 350 5.2 13.0 0.00 0.69 0.06 52 1012.9
20260506171507 56 291 5.2 13.0 0.00 0.69 0.06 51 1012.9
20260506171407 56 290 4.3 13.0 0.00 0.69 0.06 52 1012.9
20260506171307 56 233 3.5 13.0 0.00 0.69 0.06 51 1012.9
20260506171207 56 300 4.3 13.0 0.00 0.69 0.06 52 1012.9
20260506171107 56 300 5.2 13.0 0.00 0.69 0.06 52 1012.9
20260506171007 56 291 3.5 13.0 0.00 0.69 0.06 53 1012.9
20260506170907 56 300 2.6 8.7 0.00 0.69 0.06 53 1012.9
20260506170807 56 340 5.2 8.7 0.00 0.69 0.06 53 1013.2
20260506170707 56 297 4.3 8.7 0.00 0.69 0.06 53 1013.2
20260506170607 56 285 4.3 9.6 0.00 0.69 0.06 52 1013.2
20260506170507 56 332 1.7 10.4 0.00 0.69 0.06 53 1013.2
20260506170407 56 322 3.5 10.4 0.00 0.69 0.06 52 1013.2
20260506170307 56 323 6.1 10.4 0.00 0.69 0.06 52 1013.2
20260506170207 56 325 5.2 10.4 0.00 0.69 0.06 52 1013.2
20260506170107 56 352 5.2 10.4 0.00 0.69 0.06 52 1013.2
20260506170007 56 288 4.3 10.4 0.00 0.69 0.06 53 1013.2
20260506165907 56 297 4.3 10.4 0.00 0.69 0.06 53 1013.2
20260506165807 56 269 5.2 10.4 0.00 0.69 0.06 53 1013.2
20260506165707 56 280 7.0 10.4 0.00 0.69 0.06 51 1013.2
20260506165607 56 347 7.0 10.4 0.00 0.69 0.06 51 1013.2
20260506165507 56 294 6.1 9.6 0.00 0.69 0.06 53 1013.2
20260506165407 56 314 3.5 9.6 0.00 0.69 0.06 54 1013.2
20260506165307 56 298 3.5 9.6 0.00 0.69 0.06 54 1013.2
20260506165207 56 359 4.3 10.4 0.00 0.69 0.06 53 1013.2
20260506165107 56 325 6.1 10.4 0.00 0.69 0.06 53 1013.2
20260506165007 56 302 5.2 13.0 0.00 0.69 0.06 53 1013.6
20260506164907 56 285 6.1 13.0 0.00 0.69 0.06 53 1013.6
20260506164807 56 338 3.5 13.0 0.00 0.69 0.06 53 1013.6
20260506164707 56 330 5.2 13.0 0.00 0.69 0.06 51 1013.2
20260506164607 56 335 4.3 13.0 0.00 0.69 0.06 52 1013.6
20260506164507 56 359 7.0 13.0 0.00 0.69 0.06 51 1013.6
20260506164407 56 349 5.2 13.0 0.00 0.69 0.06 54 1013.2
20260506164307 56 304 7.0 13.0 0.00 0.69 0.06 52 1013.2
20260506164207 56 308 4.3 13.0 0.00 0.69 0.06 51 1013.2
20260506164107 56 277 7.0 13.0 0.00 0.69 0.06 52 1013.2
20260506164007 56 316 2.6 9.6 0.00 0.69 0.06 55 1013.2
20260506163907 56 329 3.5 9.6 0.00 0.69 0.06 53 1013.2
20260506163807 56 343 6.1 9.6 0.00 0.69 0.06 52 1013.2
20260506163707 56 339 7.0 9.6 0.00 0.69 0.06 57 1013.2
20260506163607 56 359 6.1 8.7 0.00 0.69 0.06 54 1013.2
20260506163507 56 328 4.3 8.7 0.00 0.69 0.06 54 1013.2
20260506163407 56 343 4.3 8.7 0.00 0.69 0.06 54 1013.2
20260506163307 55 347 6.1 8.7 0.00 0.69 0.06 53 1013.2
20260506163207 56 332 4.3 8.7 0.00 0.69 0.06 54 1013.2
20260506163107 56 301 4.3 7.8 0.00 0.69 0.06 55 1013.2
20260506163007 56 350 5.2 8.7 0.00 0.69 0.06 56 1013.2
20260506162907 56 25 5.2 8.7 0.00 0.69 0.06 57 1013.2
20260506162807 56 339 3.5 8.7 0.00 0.69 0.06 56 1013.2
20260506162707 56 322 6.1 8.7 0.00 0.69 0.06 56 1013.2
20260506162607 56 349 4.3 8.7 0.00 0.69 0.06 56 1013.2
20260506162507 56 319 5.2 8.7 0.00 0.69 0.06 56 1013.2
20260506162407 56 256 4.3 8.7 0.00 0.69 0.06 56 1013.2
20260506162307 55 294 4.3 8.7 0.00 0.69 0.06 56 1013.2
20260506162207 55 263 4.3 9.6 0.00 0.69 0.06 57 1012.9
20260506162107 56 302 4.3 9.6 0.00 0.69 0.06 57 1012.9
20260506162007 55 322 4.3 9.6 0.00 0.69 0.06 57 1012.9
20260506161907 55 343 2.6 9.6 0.00 0.69 0.06 58 1012.9
20260506161807 55 3 5.2 9.6 0.00 0.69 0.06 58 1012.9
20260506161707 55 343 4.3 9.6 0.00 0.69 0.06 57 1012.9
20260506161607 55 332 5.2 9.6 0.00 0.69 0.06 57 1012.9
20260506161507 55 353 6.1 9.6 0.00 0.69 0.06 57 1012.9
20260506161407 55 347 6.1 10.4 0.00 0.69 0.06 57 1012.9
20260506161307 55 342 7.0 10.4 0.00 0.69 0.06 57 1013.2
20260506161207 55 330 4.3 10.4 0.00 0.69 0.06 56 1013.2
20260506161107 55 342 6.1 10.4 0.00 0.69 0.06 56 1013.2
20260506161007 55 332 7.0 10.4 0.00 0.69 0.06 56 1013.2
20260506160907 55 322 5.2 10.4 0.00 0.69 0.06 58 1013.2
20260506160807 55 273 4.3 10.4 0.00 0.69 0.06 57 1013.2
20260506160707 55 309 5.2 10.4 0.00 0.69 0.06 56 1013.2
20260506160607 55 329 6.1 10.4 0.00 0.69 0.06 58 1013.2
20260506160507 55 290 5.2 10.4 0.00 0.69 0.06 59 1013.2
20260506160407 55 283 4.3 10.4 0.00 0.69 0.06 59 1013.2
20260506160307 55 211 5.2 10.4 0.00 0.69 0.06 58 1012.9
20260506160207 54 305 7.0 10.4 0.00 0.69 0.06 57 1012.9
20260506160107 55 309 7.0 12.2 0.00 0.69 0.06 58 1012.9
20260506160007 55 333 6.1 12.2 0.00 0.69 0.06 57 1012.9
20260506155907 55 304 4.3 12.2 0.00 0.69 0.06 58 1012.9
20260506155807 55 311 4.3 12.2 0.00 0.69 0.06 60 1012.9
20260506155707 55 305 3.5 12.2 0.00 0.69 0.06 59 1012.9
20260506155607 55 323 4.3 12.2 0.00 0.69 0.06 58 1012.9
20260506155507 54 353 6.1 12.2 0.00 0.69 0.06 57 1013.2
20260506155407 55 340 5.2 12.2 0.00 0.69 0.06 58 1012.9
20260506155307 54 332 7.0 12.2 0.00 0.69 0.06 56 1013.2
20260506155207 54 322 7.0 12.2 0.00 0.69 0.06 60 1013.2
20260506155107 55 326 4.3 8.7 0.00 0.69 0.06 60 1013.2
20260506155007 55 340 5.2 8.7 0.00 0.69 0.06 58 1013.2
20260506154907 55 307 3.5 9.6 0.00 0.69 0.06 59 1013.2
20260506154807 55 302 6.1 9.6 0.00 0.69 0.06 57 1013.2
20260506154707 55 345 3.5 9.6 0.00 0.69 0.06 57 1013.2
20260506154607 55 330 3.5 9.6 0.00 0.69 0.06 56 1013.2
20260506154507 55 318 2.6 9.6 0.00 0.69 0.06 58 1013.2
20260506154407 55 312 5.2 9.6 0.00 0.69 0.06 58 1013.2
20260506154307 54 346 4.3 9.6 0.00 0.69 0.06 57 1013.2
20260506154207 54 304 4.3 9.6 0.00 0.69 0.06 56 1013.2
20260506154107 54 301 3.5 13.0 0.00 0.69 0.06 56 1013.2
20260506154007 54 285 6.1 13.0 0.00 0.69 0.06 56 1013.2
20260506153907 54 353 7.8 13.0 0.00 0.69 0.06 58 1013.2
20260506153807 54 329 5.2 13.0 0.00 0.69 0.06 60 1013.2
20260506153707 54 326 5.2 13.0 0.00 0.69 0.06 60 1013.2
20260506153607 54 319 4.3 13.0 0.00 0.69 0.06 60 1013.2
20260506153507 54 287 3.5 13.0 0.00 0.69 0.06 60 1013.2
20260506153407 54 332 5.2 13.0 0.00 0.69 0.06 60 1013.2
20260506153307 54 248 5.2 13.0 0.00 0.69 0.06 59 1013.2
20260506153207 54 336 8.7 13.0 0.00 0.69 0.06 60 1013.2
20260506153107 54 329 4.3 7.8 0.00 0.69 0.06 63 1013.2
20260506153007 54 347 5.2 7.8 0.00 0.69 0.06 62 1013.2
20260506152907 54 285 3.5 7.8 0.00 0.69 0.06 62 1012.9
20260506152807 54 280 2.6 7.8 0.00 0.69 0.06 62 1012.9
20260506152707 54 290 5.2 7.8 0.00 0.69 0.06 63 1012.9
20260506152607 54 332 4.3 7.8 0.00 0.69 0.06 62 1012.9
20260506152507 54 349 2.6 7.8 0.00 0.69 0.06 63 1012.9
20260506152407 54 300 5.2 7.8 0.00 0.69 0.06 62 1012.9
20260506152307 54 285 4.3 9.6 0.00 0.69 0.06 61 1012.9
20260506152207 54 329 3.5 9.6 0.00 0.69 0.06 60 1012.9
20260506152107 53 359 4.3 9.6 0.00 0.69 0.06 59 1012.9
20260506152007 53 290 4.3 9.6 0.00 0.69 0.06 62 1012.9
20260506151907 53 302 3.5 9.6 0.00 0.69 0.06 62 1012.9
20260506151807 53 290 2.6 9.6 0.00 0.69 0.06 62 1012.9
20260506151707 53 288 5.2 9.6 0.00 0.69 0.06 61 1012.9
20260506151607 53 243 5.2 9.6 0.00 0.69 0.06 63 1012.9
20260506151507 53 345 5.2 9.6 0.00 0.69 0.06 62 1012.9
20260506151407 53 326 7.0 9.6 0.00 0.69 0.06 63 1012.9
20260506151307 53 8 3.5 9.6 0.00 0.69 0.06 62 1012.9
20260506151207 53 318 4.3 9.6 0.00 0.69 0.06 63 1012.9
20260506151107 53 325 4.3 9.6 0.00 0.69 0.06 63 1012.9
20260506151007 53 277 3.5 9.6 0.00 0.69 0.06 65 1012.9
20260506150907 53 349 2.6 9.6 0.00 0.69 0.06 63 1012.9
20260506150807 53 325 3.5 9.6 0.00 0.69 0.06 62 1012.6
20260506150707 53 300 5.2 9.6 0.00 0.69 0.06 61 1012.6
20260506150607 52 345 7.0 9.6 0.00 0.69 0.06 60 1012.6
20260506150507 53 347 7.0 9.6 0.00 0.69 0.06 62 1012.6
20260506150407 53 315 6.1 9.6 0.00 0.69 0.06 65 1012.6
20260506150307 53 335 3.5 8.7 0.00 0.69 0.06 66 1012.6
20260506150207 53 308 4.3 8.7 0.00 0.69 0.06 65 1012.6
20260506150107 53 243 1.7 8.7 0.00 0.69 0.06 65 1012.6
20260506150007 53 1 5.2 8.7 0.00 0.69 0.06 65 1012.6
20260506145907 53 321 4.3 8.7 0.00 0.69 0.06 65 1012.6
20260506145807 53 339 3.5 8.7 0.00 0.69 0.06 64 1012.6
20260506145707 53 285 4.3 8.7 0.00 0.69 0.06 64 1012.6
20260506145607 53 325 4.3 8.7 0.00 0.69 0.06 64 1012.6
20260506145507 52 343 7.0 8.7 0.00 0.69 0.06 63 1012.6
20260506145407 53 352 6.1 8.7 0.00 0.69 0.06 65 1012.6
20260506145307 52 325 6.1 8.7 0.00 0.69 0.06 66 1012.6
20260506145207 52 343 5.2 8.7 0.00 0.69 0.06 66 1012.6
20260506145107 52 302 5.2 8.7 0.00 0.69 0.06 65 1012.6
20260506145007 52 359 7.0 8.7 0.00 0.69 0.06 64 1012.6
20260506144907 52 14 5.2 8.7 0.00 0.69 0.06 64 1012.6
20260506144807 52 346 6.1 7.8 0.00 0.69 0.06 63 1012.6
20260506144707 52 336 4.3 7.8 0.00 0.69 0.06 67 1012.2
20260506144607 52 332 3.5 8.7 0.00 0.69 0.06 68 1012.2
20260506144507 52 294 5.2 8.7 0.00 0.69 0.06 68 1012.2
20260506144407 52 332 4.3 8.7 0.00 0.69 0.06 68 1012.6
20260506144307 52 322 5.2 8.7 0.00 0.69 0.06 68 1012.6
20260506144207 52 38 0.9 8.7 0.00 0.69 0.06 69 1012.6
20260506144107 52 304 3.5 8.7 0.00 0.69 0.06 68 1012.6
20260506144007 52 301 3.5 8.7 0.00 0.69 0.06 68 1012.6
20260506143907 52 267 4.3 8.7 0.00 0.69 0.06 70 1012.6
20260506143807 52 288 2.6 8.7 0.00 0.69 0.06 70 1012.6
20260506143707 52 274 5.2 8.7 0.00 0.69 0.06 69 1012.6
20260506143607 52 300 4.3 8.7 0.00 0.69 0.06 69 1012.6
20260506143507 52 293 3.5 8.7 0.00 0.69 0.06 69 1012.6
20260506143407 52 336 1.7 8.7 0.00 0.69 0.06 69 1012.9
20260506143307 52 300 3.5 8.7 0.00 0.69 0.06 68 1012.9
20260506143207 51 243 4.3 8.7 0.00 0.69 0.06 68 1012.9
20260506143107 52 280 4.3 8.7 0.00 0.69 0.06 69 1012.9
20260506143007 51 281 4.3 8.7 0.00 0.69 0.06 70 1012.6
20260506142907 51 284 2.6 8.7 0.00 0.69 0.06 70 1012.6
20260506142807 51 269 1.7 8.7 0.00 0.69 0.06 70 1012.6
20260506142707 51 39 2.6 8.7 0.00 0.69 0.06 70 1012.6
20260506142607 51 347 4.3 8.7 0.00 0.69 0.06 69 1012.6
20260506142507 51 345 6.1 8.7 0.00 0.69 0.06 69 1012.6
20260506142407 51 338 5.2 10.4 0.00 0.69 0.06 70 1012.2
20260506142307 51 354 5.2 10.4 0.00 0.69 0.06 72 1012.2
20260506142207 51 322 6.1 10.4 0.00 0.69 0.06 72 1012.2
20260506142107 51 298 3.5 10.4 0.00 0.69 0.06 72 1012.2
20260506142007 50 295 2.6 10.4 0.00 0.69 0.06 71 1012.2
20260506141907 50 315 4.3 10.4 0.00 0.69 0.06 70 1012.2
20260506141807 50 307 4.3 10.4 0.00 0.69 0.06 71 1012.2
20260506141707 51 300 4.3 10.4 0.00 0.69 0.06 72 1012.6
20260506141607 50 301 5.2 10.4 0.00 0.69 0.06 71 1012.6
20260506141507 50 314 5.2 10.4 0.00 0.69 0.06 71 1012.6
20260506141407 50 302 3.5 8.7 0.00 0.69 0.06 72 1012.6
20260506141307 50 253 5.2 8.7 0.00 0.69 0.06 72 1012.6
20260506141207 50 285 2.6 8.7 0.00 0.69 0.06 72 1012.6
20260506141107 50 305 5.2 8.7 0.00 0.69 0.06 71 1012.6
20260506141007 50 347 5.2 8.7 0.00 0.69 0.06 71 1012.6
20260506140907 50 332 4.3 12.2 0.00 0.69 0.06 73 1012.6
20260506140807 50 319 6.1 12.2 0.00 0.69 0.06 74 1012.6
20260506140707 50 347 5.2 12.2 0.00 0.69 0.06 73 1012.6
20260506140607 49 343 6.1 12.2 0.00 0.69 0.06 72 1012.6
20260506140507 50 342 7.0 12.2 0.00 0.69 0.06 75 1012.6
20260506140407 50 325 3.5 12.2 0.00 0.69 0.06 75 1012.6
20260506140307 50 17 3.5 12.2 0.00 0.69 0.06 74 1012.6
20260506140207 50 307 5.2 12.2 0.00 0.69 0.06 74 1012.6
20260506140107 49 332 5.2 12.2 0.00 0.69 0.06 74 1012.6
20260506140007 49 329 7.0 12.2 0.00 0.69 0.06 73 1012.6
20260506135907 50 283 6.1 9.6 0.00 0.69 0.06 73 1012.6
20260506135807 50 308 3.5 7.8 0.00 0.69 0.06 74 1012.6
20260506135707 50 304 3.5 7.8 0.00 0.69 0.06 74 1012.2
20260506135607 50 278 4.3 7.8 0.00 0.69 0.06 74 1012.2
20260506135507 50 280 6.1 7.8 0.00 0.69 0.06 73 1012.6
20260506135407 50 315 4.3 7.8 0.00 0.69 0.06 74 1012.6
20260506135307 50 297 3.5 7.0 0.00 0.69 0.06 77 1012.2
20260506135207 50 347 1.7 7.0 0.00 0.69 0.06 78 1012.2
20260506135107 50 291 1.7 8.7 0.00 0.69 0.06 77 1012.2
20260506135007 50 276 3.5 8.7 0.00 0.69 0.06 77 1012.2
20260506134907 49 323 5.2 8.7 0.00 0.69 0.06 77 1012.2
20260506134807 49 281 5.2 8.7 0.00 0.69 0.06 78 1012.2
20260506134707 49 336 4.3 8.7 0.00 0.69 0.06 79 1012.2
20260506134607 49 309 2.6 8.7 0.00 0.69 0.06 80 1012.2
20260506134507 49 260 4.3 8.7 0.00 0.69 0.06 78 1012.2
20260506134407 49 326 4.3 8.7 0.00 0.69 0.06 79 1012.2
20260506134307 49 333 3.5 8.7 0.00 0.69 0.06 79 1012.2
20260506134207 49 293 7.0 8.7 0.00 0.69 0.06 79 1012.2
20260506134107 49 350 5.2 7.0 0.00 0.69 0.06 79 1012.2
20260506134007 48 330 4.3 7.0 0.00 0.69 0.06 79 1012.2
20260506133907 49 301 4.3 7.8 0.00 0.69 0.06 80 1011.9
20260506133807 49 285 2.6 7.8 0.00 0.69 0.06 81 1011.9
20260506133707 48 290 3.5 7.8 0.00 0.69 0.06 81 1011.9
20260506133607 48 269 2.6 7.8 0.00 0.69 0.06 81 1011.9
20260506133507 48 291 3.5 7.8 0.00 0.69 0.06 81 1011.9
20260506133407 48 319 3.5 7.8 0.00 0.69 0.06 81 1011.9
20260506133307 48 343 3.5 7.8 0.00 0.69 0.06 80 1011.9
20260506133207 47 345 4.3 7.8 0.00 0.69 0.06 80 1011.9
20260506133107 48 350 4.3 8.7 0.00 0.69 0.06 80 1011.9
20260506133007 47 338 5.2 8.7 0.00 0.69 0.06 79 1011.9
20260506132907 47 318 5.2 8.7 0.00 0.69 0.06 80 1011.9
20260506132807 47 340 4.3 8.7 0.00 0.69 0.06 80 1011.9
20260506132707 47 321 4.3 8.7 0.00 0.69 0.06 80 1011.9
20260506132607 48 37 3.5 8.7 0.00 0.69 0.06 80 1011.9
20260506132507 48 316 4.3 8.7 0.00 0.69 0.06 80 1011.9
20260506132407 48 338 4.3 8.7 0.00 0.69 0.06 80 1011.9
20260506132307 48 326 3.5 8.7 0.00 0.69 0.06 80 1011.9
20260506132207 47 302 6.1 8.7 0.00 0.69 0.06 79 1011.9
20260506132107 48 318 4.3 8.7 0.00 0.69 0.06 79 1011.9
20260506132007 48 305 4.3 8.7 0.00 0.69 0.06 80 1011.9
20260506131907 48 266 6.1 8.7 0.00 0.69 0.06 80 1011.9
20260506131807 48 285 3.5 7.8 0.00 0.69 0.06 81 1011.9
20260506131707 48 311 2.6 7.0 0.00 0.69 0.06 82 1011.9
20260506131607 48 293 3.5 7.0 0.00 0.69 0.06 83 1011.9
20260506131507 48 287 2.6 7.0 0.00 0.69 0.06 83 1011.9
20260506131407 48 318 2.6 7.0 0.00 0.69 0.06 83 1011.9
20260506131307 48 311 2.6 7.0 0.00 0.69 0.06 83 1011.9
20260506131207 47 338 5.2 7.0 0.00 0.69 0.06 83 1011.9
20260506131107 47 335 4.3 7.0 0.00 0.69 0.06 84 1011.9
20260506131007 48 262 4.3 6.1 0.00 0.69 0.06 84 1011.9
20260506130907 48 294 2.6 6.1 0.00 0.69 0.06 85 1011.9
20260506130807 47 338 4.3 6.1 0.00 0.69 0.06 85 1011.9
20260506130707 47 353 2.6 5.2 0.00 0.69 0.06 85 1011.9
20260506130607 47 329 1.7 5.2 0.00 0.69 0.06 85 1011.9
20260506130507 47 309 3.5 5.2 0.00 0.69 0.06 84 1011.9
20260506130407 47 0 4.3 5.2 0.00 0.69 0.06 85 1012.2
20260506130307 47 326 1.7 5.2 0.00 0.69 0.06 85 1011.9
20260506130207 47 273 1.7 7.8 0.00 0.69 0.06 86 1012.2
20260506130107 47 297 0.9 7.8 0.00 0.69 0.06 86 1012.2
20260506130007 47 248 1.7 7.8 0.00 0.69 0.06 86 1012.2
20260506125907 47 338 2.6 7.8 0.00 0.69 0.06 86 1011.9
20260506125807 47 291 2.6 7.8 0.00 0.69 0.06 86 1011.9
20260506125707 47 318 2.6 7.8 0.00 0.69 0.06 86 1011.9
20260506125607 47 302 3.5 7.8 0.00 0.69 0.06 86 1011.9
20260506125507 47 338 3.5 7.8 0.00 0.69 0.06 86 1011.9
20260506125407 47 318 2.6 7.8 0.00 0.69 0.06 86 1011.9
20260506125307 47 284 4.3 7.8 0.00 0.69 0.06 86 1011.9
20260506125207 47 312 3.5 5.2 0.00 0.69 0.06 87 1011.9
20260506125107 47 304 3.5 5.2 0.00 0.69 0.06 87 1012.2
20260506125007 47 319 2.6 5.2 0.00 0.69 0.06 87 1011.9
20260506124907 47 315 2.6 5.2 0.00 0.69 0.06 88 1012.2
20260506124807 47 290 0.9 6.1 0.00 0.69 0.06 88 1012.2
20260506124707 47 285 3.5 6.1 0.00 0.69 0.06 87 1012.2
20260506124607 47 277 0.9 6.1 0.00 0.69 0.06 88 1012.2
20260506124507 47 332 0.0 6.1 0.00 0.69 0.06 88 1011.9
20260506124407 46 300 2.6 6.1 0.00 0.69 0.06 88 1011.9
20260506124307 46 312 0.9 6.1 0.00 0.69 0.06 88 1011.9
20260506124207 46 32 1.7 6.1 0.00 0.69 0.06 88 1011.9
20260506124107 46 283 2.6 6.1 0.00 0.69 0.06 88 1011.9
20260506124007 46 314 3.5 6.1 0.00 0.69 0.06 88 1011.9
20260506123907 46 312 4.3 6.1 0.00 0.69 0.06 88 1011.9
20260506123807 46 330 3.5 6.1 0.00 0.69 0.06 89 1011.9
20260506123707 46 311 2.6 6.1 0.00 0.69 0.06 89 1011.9
20260506123607 46 298 2.6 6.1 0.00 0.69 0.06 89 1011.9
20260506123507 46 273 2.6 5.2 0.00 0.69 0.06 89 1011.6
20260506123407 46 321 2.6 5.2 0.00 0.69 0.06 89 1011.6
20260506123307 46 346 2.6 5.2 0.00 0.69 0.06 89 1011.6
20260506123207 46 322 3.5 5.2 0.00 0.69 0.06 89 1011.6
20260506123107 46 330 1.7 5.2 0.00 0.69 0.06 89 1011.6
20260506123007 46 332 2.6 5.2 0.00 0.69 0.06 89 1011.6
20260506122907 46 304 2.6 5.2 0.00 0.69 0.06 90 1011.6
20260506122807 46 336 3.5 5.2 0.00 0.69 0.06 90 1011.6
20260506122707 46 301 3.5 5.2 0.00 0.69 0.06 90 1011.2
20260506122607 46 287 2.6 6.1 0.00 0.69 0.06 90 1011.2
20260506122507 46 14 2.6 6.1 0.00 0.69 0.06 90 1011.2
20260506122407 46 270 3.5 6.1 0.00 0.69 0.06 90 1011.2
20260506122307 46 285 3.5 6.1 0.00 0.69 0.06 90 1011.2
20260506122207 46 315 2.6 6.1 0.00 0.69 0.06 90 1011.2
20260506122107 46 1 3.5 6.1 0.00 0.69 0.06 90 1011.2
20260506122007 46 316 1.7 6.1 0.00 0.69 0.06 90 1011.2
20260506121907 46 307 2.6 6.1 0.00 0.69 0.06 90 1011.2
20260506121807 46 342 1.7 6.1 0.00 0.69 0.06 90 1011.2
20260506121707 45 336 3.5 6.1 0.00 0.69 0.06 90 1011.2
20260506121607 45 349 4.3 6.1 0.00 0.69 0.06 90 1010.9
20260506121507 46 335 3.5 6.1 0.00 0.69 0.06 91 1010.9
20260506121407 46 322 2.6 6.1 0.00 0.69 0.06 91 1010.9
20260506121316 46 321 3.5 7.0 0.00 0.69 0.06 91 1010.9
20260506121207 45 338 4.3 7.0 0.00 0.69 0.06 91 1010.9
20260506121107 45 352 4.3 7.0 0.00 0.69 0.06 91 1011.2
20260506121007 46 325 1.7 7.0 0.00 0.69 0.06 91 1011.2
20260506120907 46 314 1.7 7.0 0.00 0.69 0.06 91 1011.2
20260506120807 46 312 1.7 7.0 0.00 0.69 0.06 91 1011.2
20260506120707 45 340 3.5 7.0 0.00 0.69 0.06 91 1011.2
20260506120607 46 316 4.3 7.0 0.00 0.69 0.06 91 1011.2
20260506120507 45 325 2.6 7.0 0.00 0.69 0.06 91 1011.2
20260506120407 45 349 4.3 7.0 0.00 0.69 0.06 91 1010.9
20260506120307 45 343 3.5 7.0 0.00 0.69 0.06 91 1010.9
20260506120207 46 314 1.7 6.1 0.00 0.69 0.06 91 1010.9
20260506120107 46 300 2.6 6.1 0.00 0.69 0.06 91 1010.9
20260506120007 45 325 3.5 6.1 0.00 0.69 0.06 91 1010.9
20260506115907 46 359 4.3 6.1 0.00 0.69 0.06 91 1010.9
20260506115807 45 332 4.3 6.1 0.00 0.69 0.06 91 1010.9
20260506115707 46 336 3.5 6.1 0.00 0.69 0.06 91 1011.2
20260506115607 46 328 2.6 6.1 0.00 0.69 0.06 91 1010.9
20260506115507 46 323 3.5 6.1 0.00 0.69 0.06 91 1010.9
20260506115407 46 333 3.5 6.1 0.00 0.69 0.06 91 1010.9
20260506115307 46 347 0.9 6.1 0.00 0.69 0.06 91 1010.9
20260506115207 45 314 4.3 6.1 0.00 0.69 0.06 91 1010.9
20260506115107 45 359 4.3 6.1 0.00 0.69 0.06 91 1010.9
20260506115007 45 328 3.5 5.2 0.00 0.69 0.06 91 1010.9
20260506114907 46 276 1.7 5.2 0.00 0.69 0.06 91 1010.9
20260506114807 46 357 1.7 5.2 0.00 0.69 0.06 91 1010.9
20260506114707 46 353 2.6 5.2 0.00 0.69 0.06 91 1010.9
20260506114607 46 323 3.5 5.2 0.00 0.69 0.06 91 1010.9
20260506114507 46 302 3.5 5.2 0.00 0.69 0.06 91 1010.9
20260506114407 46 278 2.6 4.3 0.00 0.69 0.06 91 1010.9
20260506114307 46 342 2.6 4.3 0.00 0.69 0.06 91 1010.9
20260506114207 46 333 2.6 4.3 0.00 0.69 0.06 91 1010.9
20260506114107 46 316 1.7 4.3 0.00 0.69 0.06 91 1010.9
20260506114007 46 314 1.7 4.3 0.00 0.69 0.06 91 1010.9
20260506113907 46 308 0.9 2.6 0.00 0.69 0.06 91 1010.9
20260506113807 46 312 0.0 2.6 0.00 0.69 0.06 91 1010.9
20260506113707 46 330 0.9 2.6 0.00 0.69 0.06 91 1010.9
20260506113607 46 308 0.9 3.5 0.00 0.69 0.06 91 1010.9
20260506113507 46 340 1.7 3.5 0.00 0.69 0.06 91 1010.9
20260506113407 46 271 0.0 3.5 0.00 0.69 0.06 91 1010.5
20260506113307 46 271 0.0 3.5 0.00 0.69 0.06 91 1010.5
20260506113207 46 271 0.0 3.5 0.00 0.69 0.06 91 1010.5
20260506113107 46 271 0.9 3.5 0.00 0.69 0.06 91 1010.5
20260506113007 46 336 1.7 4.3 0.00 0.69 0.06 91 1010.5
20260506112907 45 288 1.7 4.3 0.00 0.69 0.06 91 1010.5
20260506112807 45 294 2.6 4.3 0.00 0.69 0.06 91 1010.5
20260506112707 45 322 2.6 4.3 0.00 0.69 0.06 91 1010.5
20260506112607 45 335 2.6 4.3 0.00 0.69 0.06 91 1010.5
20260506112507 45 339 3.5 4.3 0.00 0.69 0.06 91 1010.5
20260506112407 45 300 1.7 4.3 0.00 0.69 0.06 91 1010.5
20260506112307 45 287 1.7 4.3 0.00 0.69 0.06 91 1010.5
20260506112207 45 332 3.5 5.2 0.00 0.69 0.06 91 1010.5
20260506112107 45 330 3.5 5.2 0.00 0.69 0.06 91 1010.2
20260506112007 45 343 3.5 5.2 0.00 0.69 0.06 91 1010.2
20260506111907 45 297 0.9 5.2 0.00 0.69 0.06 91 1010.2
20260506111807 45 339 1.7 5.2 0.00 0.69 0.06 91 1010.2
20260506111707 45 353 2.6 5.2 0.00 0.69 0.06 91 1010.2
20260506111607 45 3 1.7 5.2 0.00 0.69 0.06 91 1010.2
20260506111507 45 343 1.7 5.2 0.00 0.69 0.06 90 1010.2
20260506111407 45 11 1.7 6.1 0.00 0.69 0.06 90 1010.2
20260506111307 45 325 2.6 6.1 0.00 0.69 0.06 90 1010.2
20260506111207 45 325 3.5 6.1 0.00 0.69 0.06 90 1010.2
20260506111107 45 339 2.6 6.1 0.00 0.69 0.06 90 1010.2
20260506111007 45 347 0.9 6.1 0.00 0.69 0.06 90 1010.2
20260506110907 45 315 3.5 6.1 0.00 0.69 0.06 90 1010.2
20260506110807 45 291 3.5 6.1 0.00 0.69 0.06 90 1010.2
20260506110707 45 330 3.5 6.1 0.00 0.69 0.06 90 1010.2
20260506110607 45 328 3.5 6.1 0.00 0.69 0.06 90 1010.2
20260506110507 45 323 3.5 6.1 0.00 0.69 0.06 90 1010.2
20260506110407 45 332 2.6 5.2 0.00 0.69 0.06 90 1010.2
20260506110307 45 322 1.7 5.2 0.00 0.69 0.06 90 1010.2
20260506110207 45 349 3.5 5.2 0.00 0.69 0.06 90 1010.2
20260506110107 45 353 3.5 5.2 0.00 0.69 0.06 90 1010.2
20260506110007 45 349 2.6 5.2 0.00 0.69 0.06 90 1010.2
20260506105907 45 328 1.7 6.1 0.00 0.69 0.06 90 1010.2
20260506105807 45 312 1.7 7.0 0.00 0.69 0.06 90 1010.2
20260506105707 45 339 3.5 7.0 0.00 0.69 0.06 89 1010.2
20260506105607 45 353 2.6 7.0 0.00 0.69 0.06 90 1010.2
20260506105507 45 277 1.7 7.0 0.00 0.69 0.06 90 1010.2
20260506105407 45 330 1.7 7.0 0.00 0.69 0.06 90 1010.2
20260506105307 45 321 1.7 7.0 0.00 0.69 0.06 90 1010.2
20260506105207 45 309 2.6 7.0 0.00 0.69 0.06 89 1010.2
20260506105107 45 340 3.5 7.0 0.00 0.69 0.06 89 1010.2
20260506105007 45 329 3.5 7.0 0.00 0.69 0.06 89 1010.2
20260506104907 45 340 5.2 7.0 0.00 0.69 0.06 90 1010.2
20260506104807 45 319 1.7 5.2 0.00 0.69 0.06 90 1010.2
20260506104707 45 323 3.5 5.2 0.00 0.69 0.06 90 1010.2
20260506104607 45 4 3.5 5.2 0.00 0.69 0.06 90 1010.2
20260506104507 45 15 3.5 5.2 0.00 0.69 0.06 90 1010.2
20260506104407 45 349 3.5 4.3 0.00 0.69 0.06 90 1010.2
20260506104307 45 347 2.6 4.3 0.00 0.69 0.06 90 1010.2
20260506104207 45 338 3.5 6.1 0.00 0.69 0.06 90 1010.2
20260506104107 45 338 2.6 6.1 0.00 0.69 0.06 90 1010.2
20260506104007 45 330 3.5 6.1 0.00 0.69 0.06 90 1009.9
20260506103907 45 335 3.5 6.1 0.00 0.69 0.06 90 1009.9
20260506103807 45 354 1.7 6.1 0.00 0.69 0.06 90 1009.9
20260506103707 45 347 1.7 6.1 0.00 0.69 0.06 90 1009.9
20260506103607 45 339 1.7 6.1 0.00 0.69 0.06 90 1010.2
20260506103507 45 346 2.6 6.1 0.00 0.69 0.06 90 1009.9
20260506103407 45 314 2.6 6.1 0.00 0.69 0.06 90 1009.9
20260506103307 45 359 4.3 6.1 0.00 0.69 0.06 89 1009.9
20260506103207 45 356 2.6 6.1 0.00 0.69 0.06 90 1009.9
20260506103107 45 354 2.6 6.1 0.00 0.69 0.06 90 1009.9
20260506103007 45 3 3.5 6.1 0.00 0.69 0.06 90 1009.9
20260506102907 45 346 3.5 6.1 0.00 0.69 0.06 90 1009.9
20260506102807 45 0 3.5 6.1 0.00 0.69 0.06 90 1009.9
20260506102707 44 323 5.2 6.1 0.00 0.69 0.06 90 1009.9
20260506102607 45 347 4.3 6.1 0.00 0.69 0.06 90 1009.9
20260506102507 45 328 0.9 6.1 0.00 0.69 0.06 90 1010.2
20260506102407 45 347 1.7 6.1 0.00 0.69 0.06 90 1010.2
20260506102307 45 38 1.7 6.1 0.00 0.69 0.06 90 1010.2
20260506102207 45 319 1.7 6.1 0.00 0.69 0.06 90 1010.2
20260506102107 45 347 1.7 6.1 0.00 0.69 0.06 90 1009.9
20260506102007 44 316 4.3 6.1 0.00 0.69 0.06 89 1009.9
20260506101907 45 3 4.3 6.1 0.00 0.69 0.06 90 1010.2
20260506101807 45 316 0.9 5.2 0.00 0.69 0.06 90 1010.2
20260506101707 45 305 0.9 7.8 0.00 0.69 0.06 90 1010.2
20260506101607 45 318 1.7 7.8 0.00 0.69 0.06 90 1010.2
20260506101507 45 333 1.7 7.8 0.00 0.69 0.06 90 1010.2
20260506101407 45 300 1.7 7.8 0.00 0.69 0.06 89 1010.2
20260506101307 44 349 3.5 7.8 0.00 0.69 0.06 89 1009.9
20260506101207 44 347 4.3 7.8 0.00 0.69 0.06 89 1009.9
20260506101107 45 0 2.6 7.8 0.00 0.69 0.06 89 1009.9
20260506101007 44 314 3.5 7.8 0.00 0.69 0.06 89 1009.9
20260506100907 44 352 2.6 7.8 0.00 0.69 0.06 89 1009.9
20260506100807 44 340 5.2 7.8 0.00 0.69 0.06 89 1009.9
20260506100707 44 336 3.5 6.1 0.00 0.69 0.06 89 1009.9
20260506100607 44 338 3.5 7.0 0.00 0.69 0.06 89 1009.5
20260506100507 44 354 4.3 7.0 0.00 0.69 0.06 90 1009.5
20260506100407 44 329 2.6 7.8 0.00 0.69 0.06 90 1009.5
20260506100307 44 350 3.5 7.8 0.00 0.69 0.06 89 1009.5
20260506100207 44 347 3.5 7.8 0.00 0.69 0.06 90 1009.5
20260506100107 44 359 3.5 7.8 0.00 0.69 0.06 90 1009.5
20260506100007 44 8 3.5 7.8 0.00 0.69 0.06 89 1009.5
20260506095907 44 18 3.5 8.7 0.00 0.69 0.06 90 1009.2
20260506095807 44 4 4.3 8.7 0.00 0.69 0.06 89 1009.5
20260506095707 44 15 5.2 8.7 0.00 0.69 0.06 90 1009.5
20260506095607 44 359 5.2 8.7 0.00 0.69 0.06 90 1009.5
20260506095507 44 4 5.2 8.7 0.00 0.69 0.06 90 1009.5
20260506095407 44 359 2.6 8.7 0.00 0.69 0.06 90 1009.5
20260506095307 44 350 3.5 8.7 0.00 0.69 0.06 90 1009.5
20260506095207 44 350 3.5 8.7 0.00 0.69 0.06 90 1009.5
20260506095107 44 352 3.5 8.7 0.00 0.69 0.06 90 1009.5
20260506095007 44 7 4.3 8.7 0.00 0.69 0.06 90 1009.5
20260506094907 44 329 3.5 8.7 0.00 0.69 0.06 90 1009.5
20260506094807 44 3 3.5 8.7 0.00 0.69 0.06 90 1009.5
20260506094707 45 49 0.9 8.7 0.00 0.69 0.06 90 1009.5
20260506094607 45 35 4.3 8.7 0.00 0.69 0.06 90 1009.5
20260506094507 44 343 5.2 7.0 0.00 0.69 0.06 91 1009.5
20260506094407 44 332 3.5 7.0 0.00 0.69 0.06 91 1009.9
20260506094307 45 359 2.6 7.0 0.00 0.69 0.06 91 1009.9
20260506094207 44 338 5.2 7.0 0.00 0.69 0.06 91 1009.9
20260506094107 44 343 4.3 7.0 0.00 0.69 0.06 91 1009.9
20260506094007 45 336 4.3 7.0 0.00 0.69 0.06 91 1009.9
20260506093907 45 326 2.6 7.0 0.00 0.69 0.06 91 1009.9
20260506093807 45 284 1.7 7.8 0.00 0.69 0.06 91 1009.9
20260506093707 45 23 1.7 7.8 0.00 0.69 0.06 91 1009.9
20260506093607 44 338 4.3 7.8 0.00 0.69 0.06 91 1009.5
20260506093507 44 338 5.2 7.8 0.00 0.69 0.06 91 1009.5
20260506093407 44 6 5.2 7.8 0.00 0.69 0.06 91 1009.5
20260506093307 44 330 3.5 7.8 0.00 0.69 0.06 91 1009.5
20260506093207 44 338 3.5 7.8 0.00 0.69 0.06 91 1009.5
20260506093107 44 332 3.5 8.7 0.00 0.69 0.06 91 1009.5
20260506093007 44 21 3.5 8.7 0.00 0.69 0.06 91 1009.5
20260506092907 44 32 4.3 8.7 0.00 0.69 0.06 91 1009.2
20260506092807 44 11 4.3 8.7 0.00 0.69 0.06 91 1009.2
20260506092707 44 14 5.2 8.7 0.00 0.69 0.06 91 1009.2
20260506092607 44 349 4.3 8.7 0.00 0.69 0.06 91 1009.5
20260506092507 44 346 4.3 8.7 0.00 0.69 0.06 91 1009.2
20260506092407 44 323 5.2 8.7 0.00 0.69 0.06 91 1009.2
20260506092307 44 4 4.3 8.7 0.00 0.69 0.06 91 1009.2
20260506092207 44 21 5.2 8.7 0.00 0.69 0.06 91 1009.5
20260506092107 44 339 3.5 8.7 0.00 0.69 0.06 91 1009.5
20260506092007 44 4 3.5 8.7 0.00 0.69 0.06 91 1009.5
20260506091907 44 342 3.5 8.7 0.00 0.69 0.06 91 1009.5
20260506091807 44 6 3.5 8.7 0.00 0.69 0.06 91 1009.5
20260506091707 44 359 4.3 8.7 0.00 0.69 0.06 91 1009.2
20260506091607 44 349 4.3 8.7 0.00 0.69 0.06 91 1009.2
20260506091507 44 326 3.5 8.7 0.00 0.69 0.06 91 1009.2
20260506091407 44 319 4.3 8.7 0.00 0.69 0.06 91 1008.8
20260506091307 44 319 6.1 8.7 0.00 0.69 0.06 91 1008.8
20260506091207 44 350 6.1 8.7 0.00 0.69 0.06 91 1008.8
20260506091107 44 339 5.2 8.7 0.00 0.69 0.06 91 1008.8
20260506091007 44 3 5.2 8.7 0.00 0.69 0.06 91 1008.8
20260506090907 44 349 5.2 8.7 0.00 0.69 0.06 91 1008.8
20260506090807 44 13 6.1 8.7 0.00 0.69 0.06 91 1008.8
20260506090707 44 8 3.5 7.0 0.00 0.69 0.06 91 1008.8
20260506090607 44 326 2.6 7.0 0.00 0.69 0.06 92 1008.8
20260506090507 44 63 3.5 7.0 0.00 0.69 0.06 92 1008.8
20260506090407 44 10 3.5 7.0 0.00 0.69 0.06 92 1009.2
20260506090307 44 343 3.5 7.0 0.00 0.69 0.06 92 1009.2
20260506090207 44 7 4.3 7.0 0.00 0.69 0.06 91 1009.2
20260506090107 44 345 4.3 7.0 0.00 0.69 0.06 92 1009.2
20260506090007 44 14 5.2 7.0 0.00 0.69 0.06 92 1009.2
20260506085907 44 359 5.2 7.8 0.01 0.69 0.06 92 1009.2
20260506085807 44 329 4.3 7.8 0.01 0.69 0.06 92 1009.2
20260506085707 44 345 3.5 7.8 0.01 0.69 0.06 92 1009.2
20260506085607 44 359 4.3 7.8 0.01 0.69 0.06 92 1009.2
20260506085507 44 342 4.3 7.8 0.01 0.69 0.06 92 1009.2
20260506085407 44 339 4.3 7.8 0.01 0.69 0.06 92 1009.2
20260506085307 44 14 2.6 7.8 0.01 0.69 0.06 92 1009.2
20260506085207 44 3 4.3 7.8 0.01 0.69 0.06 92 1009.2
20260506085107 44 321 4.3 7.8 0.01 0.69 0.06 92 1009.2
20260506085007 44 343 4.3 7.8 0.01 0.69 0.06 92 1008.8
20260506084907 44 340 2.6 7.0 0.01 0.69 0.06 92 1008.8
20260506084807 44 357 2.6 7.0 0.01 0.69 0.06 92 1008.8
20260506084707 45 14 2.6 7.0 0.01 0.69 0.06 92 1008.8
20260506084607 44 347 0.9 7.0 0.01 0.69 0.06 92 1008.8
20260506084507 44 28 2.6 7.0 0.01 0.69 0.06 92 1008.8
20260506084407 44 352 3.5 7.0 0.01 0.69 0.06 92 1008.8
20260506084307 44 321 3.5 7.0 0.01 0.69 0.06 92 1008.8
20260506084207 44 335 5.2 7.0 0.01 0.69 0.06 92 1008.8
20260506084107 44 342 4.3 7.0 0.01 0.69 0.06 93 1008.8
20260506084007 44 359 3.5 7.0 0.01 0.69 0.06 93 1008.5
20260506083907 44 357 3.5 7.0 0.01 0.69 0.06 93 1008.5
20260506083807 45 11 3.5 7.0 0.01 0.69 0.06 93 1008.5
20260506083707 44 359 2.6 7.0 0.01 0.69 0.06 93 1008.5
20260506083607 44 333 4.3 7.0 0.01 0.69 0.06 92 1008.5
20260506083507 44 11 4.3 7.0 0.01 0.69 0.06 92 1008.5
20260506083407 44 359 3.5 7.0 0.01 0.69 0.06 93 1008.5
20260506083307 44 3 3.5 7.0 0.01 0.69 0.06 92 1008.5
20260506083207 44 11 4.3 7.0 0.01 0.69 0.06 92 1008.5
20260506083107 44 13 4.3 7.0 0.01 0.69 0.06 92 1008.5
20260506083007 45 359 3.5 7.0 0.01 0.69 0.06 92 1008.5
20260506082907 45 356 2.6 7.0 0.01 0.69 0.06 92 1008.5
20260506082807 44 62 3.5 7.0 0.01 0.69 0.06 92 1008.5
20260506082707 44 353 4.3 7.8 0.01 0.69 0.06 92 1008.5
20260506082607 45 66 3.5 7.8 0.01 0.69 0.06 92 1008.5
20260506082507 44 6 3.5 7.8 0.01 0.69 0.06 92 1008.5
20260506082407 45 18 4.3 7.8 0.01 0.69 0.06 92 1008.5
20260506082307 44 333 4.3 7.8 0.01 0.69 0.06 92 1008.8
20260506082207 45 0 3.5 7.8 0.01 0.69 0.06 92 1008.8
20260506082107 45 20 2.6 7.8 0.01 0.69 0.06 92 1008.8
20260506082007 45 21 3.5 8.7 0.01 0.69 0.06 92 1008.8
20260506081907 45 24 3.5 8.7 0.01 0.69 0.06 92 1008.8
20260506081807 45 20 4.3 8.7 0.01 0.69 0.06 92 1009.2
20260506081707 45 354 3.5 8.7 0.01 0.69 0.06 92 1009.2
20260506081607 45 4 4.3 8.7 0.01 0.69 0.06 92 1009.2
20260506081507 45 356 4.3 8.7 0.01 0.69 0.06 92 1009.2
20260506081407 45 46 4.3 8.7 0.01 0.69 0.06 92 1009.2
20260506081307 45 335 5.2 8.7 0.01 0.69 0.06 92 1009.2
20260506081207 44 333 5.2 8.7 0.01 0.69 0.06 92 1009.2
20260506081107 44 354 5.2 8.7 0.01 0.69 0.06 92 1009.2
20260506081007 45 359 4.3 8.7 0.01 0.69 0.06 92 1009.2
20260506080907 45 359 3.5 6.1 0.01 0.69 0.06 92 1009.5
20260506080807 45 350 3.5 6.1 0.01 0.69 0.06 93 1009.5
20260506080707 45 336 2.6 6.1 0.01 0.69 0.06 93 1009.5
20260506080607 45 308 2.6 6.1 0.01 0.69 0.06 92 1009.5
20260506080507 45 309 4.3 6.1 0.01 0.69 0.06 92 1009.2
20260506080407 45 309 4.3 6.1 0.01 0.69 0.06 92 1009.2
20260506080307 45 17 3.5 6.1 0.01 0.69 0.06 93 1009.2
20260506080207 45 359 3.5 7.8 0.01 0.69 0.06 93 1009.2
20260506080107 45 359 3.5 7.8 0.01 0.69 0.06 92 1009.2
20260506073507 45 30 2.6 6.1 0.00 0.69 0.05 93 1008.8
20260506073407 45 321 4.3 6.1 0.00 0.69 0.05 93 1008.8
20260506073307 45 25 4.3 6.1 0.00 0.69 0.05 93 1008.8
20260506073207 45 3 4.3 7.0 0.00 0.69 0.05 93 1008.8
20260506073107 45 52 3.5 7.0 0.00 0.69 0.05 93 1008.8
20260506073007 45 65 3.5 7.0 0.00 0.69 0.05 93 1008.8
20260506072907 45 356 4.3 7.0 0.00 0.69 0.05 93 1008.8
20260506072807 45 322 3.5 7.0 0.00 0.69 0.05 93 1008.8
20260506072707 45 52 2.6 7.0 0.00 0.69 0.05 93 1008.8
20260506072607 45 21 2.6 9.6 0.00 0.69 0.05 93 1008.5
20260506072507 45 39 3.5 10.4 0.00 0.69 0.05 93 1008.5
20260506072407 45 349 4.3 10.4 0.00 0.69 0.05 93 1008.5
20260506072307 45 23 3.5 10.4 0.00 0.69 0.05 93 1008.5
20260506072207 45 353 5.2 10.4 0.00 0.69 0.05 93 1008.5
20260506072107 45 1 3.5 10.4 0.00 0.69 0.05 93 1008.5
20260506072007 45 315 3.5 10.4 0.00 0.69 0.05 93 1008.5
20260506071907 45 353 2.6 10.4 0.00 0.69 0.05 93 1008.5
20260506071807 45 8 3.5 10.4 0.00 0.69 0.05 93 1008.5
20260506071707 45 338 6.1 10.4 0.00 0.69 0.05 93 1008.5
20260506071607 44 359 7.8 10.4 0.00 0.69 0.05 93 1008.5
20260506071507 45 349 5.2 8.7 0.00 0.69 0.05 94 1008.5
20260506071407 45 343 4.3 8.7 0.00 0.69 0.05 94 1008.5
20260506071307 45 328 7.0 8.7 0.00 0.69 0.05 94 1008.5
20260506071207 45 359 6.1 8.7 0.00 0.69 0.05 94 1008.5
20260506071107 45 342 5.2 8.7 0.00 0.69 0.05 94 1008.5
20260506071007 45 11 5.2 9.6 0.01 0.69 0.05 94 1008.5
20260506070907 45 359 6.1 9.6 0.01 0.69 0.05 94 1008.5
20260506070807 45 312 6.1 9.6 0.01 0.69 0.05 94 1008.5
20260506070707 45 338 6.1 9.6 0.01 0.69 0.05 95 1008.5
20260506070607 45 322 4.3 9.6 0.01 0.69 0.05 95 1008.5
20260506070507 45 347 6.1 9.6 0.01 0.69 0.05 95 1008.5
20260506070407 45 4 5.2 9.6 0.01 0.69 0.05 95 1008.5
20260506070307 45 343 3.5 9.6 0.01 0.69 0.05 95 1008.5
20260506070207 45 350 4.3 9.6 0.01 0.69 0.05 95 1008.5
20260506070107 45 343 6.1 9.6 0.01 0.69 0.05 95 1008.5
20260506062507 45 335 6.1 9.6 0.02 0.69 0.05 95 1009.2
20260506062407 45 332 4.3 9.6 0.02 0.69 0.05 95 1009.2
20260506062307 45 309 6.1 9.6 0.02 0.69 0.05 95 1009.2
20260506062207 45 1 6.1 9.6 0.02 0.69 0.05 95 1009.2
20260506062107 45 347 5.2 8.7 0.02 0.69 0.05 95 1009.2
20260506062007 45 332 7.0 8.7 0.02 0.69 0.05 95 1009.2
20260506061907 45 359 6.1 8.7 0.02 0.69 0.05 95 1009.2
20260506061807 45 359 6.1 8.7 0.02 0.69 0.05 95 1009.2
20260506061707 45 352 3.5 7.0 0.02 0.69 0.05 95 1009.2
20260506061607 45 353 3.5 7.0 0.02 0.69 0.05 95 1009.2
20260506061507 45 0 5.2 7.0 0.02 0.69 0.05 95 1008.8
20260506061407 45 353 3.5 7.0 0.02 0.69 0.05 95 1008.8
20260506061307 45 349 2.6 7.0 0.02 0.69 0.05 95 1008.8
20260506061207 45 347 2.6 7.0 0.02 0.69 0.05 95 1008.8
20260506061107 45 357 2.6 7.0 0.02 0.69 0.05 95 1008.8
20260506061007 45 350 3.5 7.0 0.01 0.69 0.04 95 1009.2
20260506060907 45 17 1.7 7.0 0.01 0.69 0.04 95 1009.2
20260506060807 45 11 3.5 7.0 0.01 0.69 0.04 95 1009.2
20260506060707 45 345 3.5 7.0 0.01 0.69 0.04 95 1009.2
20260506060607 45 3 3.5 7.0 0.01 0.69 0.04 95 1009.2
20260506060507 44 354 5.2 7.0 0.01 0.69 0.04 95 1009.2
20260506060407 45 352 3.5 7.0 0.01 0.69 0.04 95 1009.2
20260506060307 45 321 1.7 6.1 0.01 0.69 0.04 95 1009.2
20260506060207 45 24 2.6 6.1 0.01 0.69 0.04 95 1009.2
20260506060107 45 11 3.5 6.1 0.01 0.69 0.04 95 1009.2
20260506051407 44 11 5.2 7.8 0.03 0.69 0.03 95 1009.2
20260506051307 45 346 4.3 7.0 0.03 0.69 0.03 95 1009.2
20260506051207 45 13 3.5 7.0 0.03 0.69 0.03 95 1009.2
20260506051107 45 13 3.5 7.0 0.03 0.69 0.03 95 1009.2
20260506051007 45 338 3.5 7.0 0.03 0.69 0.03 95 1009.2
20260506050907 45 340 4.3 7.0 0.03 0.69 0.03 95 1009.2
20260506050807 45 357 3.5 8.7 0.03 0.69 0.03 95 1009.2
20260506050707 45 328 4.3 8.7 0.03 0.69 0.03 95 1009.2
20260506050607 45 4 1.7 8.7 0.03 0.69 0.03 95 1009.2
20260506050507 45 59 0.9 8.7 0.03 0.69 0.03 95 1009.2
20260506050407 45 359 2.6 8.7 0.03 0.69 0.03 95 1009.2
20260506050307 45 340 2.6 8.7 0.03 0.69 0.03 95 1009.2
20260506050207 45 315 1.7 8.7 0.03 0.69 0.03 95 1009.2
20260506050107 45 7 2.6 8.7 0.03 0.69 0.03 95 1009.2
20260506045107 45 340 4.3 12.2 0.01 0.69 0.01 95 1009.2
20260506045007 45 8 6.1 12.2 0.01 0.69 0.01 95 1009.2
20260506044907 45 350 6.1 12.2 0.01 0.69 0.01 95 1009.2
20260506044807 45 17 7.8 12.2 0.01 0.69 0.01 95 1009.2
20260506044707 45 321 7.8 12.2 0.01 0.69 0.01 95 1009.2
20260506044607 45 353 4.3 9.6 0.01 0.69 0.01 95 1009.2
20260506044507 45 336 7.0 8.7 0.01 0.69 0.01 95 1009.2
20260506044407 46 338 1.7 8.7 0.01 0.69 0.01 95 1009.2
20260506044307 46 17 2.6 8.7 0.01 0.69 0.01 95 1009.2
20260506044207 45 359 6.1 9.6 0.02 0.69 0.01 95 1009.2
20260506044107 45 353 5.2 9.6 0.02 0.69 0.01 95 1009.2
20260506044007 46 0 4.3 9.6 0.02 0.69 0.01 95 1009.2
20260506043907 46 15 5.2 9.6 0.02 0.69 0.01 95 1009.2
20260506043807 46 13 4.3 9.6 0.02 0.69 0.01 95 1009.2
20260506043707 46 356 4.3 9.6 0.02 0.69 0.01 95 1008.8
20260506043607 46 17 4.3 9.6 0.02 0.69 0.01 95 1009.2
20260506043507 46 359 3.5 9.6 0.02 0.69 0.01 95 1008.8
20260506043407 46 38 3.5 9.6 0.02 0.69 0.01 95 1008.8
20260506043307 46 27 5.2 9.6 0.02 0.69 0.01 95 1008.8
20260506043207 47 49 3.5 9.6 0.02 0.69 0.01 95 1008.8
20260506043107 47 34 1.7 7.0 0.02 0.69 0.01 95 1008.8
20260506043007 47 39 2.6 7.0 0.02 0.69 0.01 95 1008.8
20260506042907 47 352 3.5 7.0 0.02 0.69 0.01 95 1008.5
20260506042807 47 14 1.7 8.7 0.02 0.69 0.01 95 1008.5
20260506042707 47 35 1.7 8.7 0.02 0.69 0.01 95 1008.5
20260506042607 47 13 3.5 8.7 0.02 0.69 0.01 95 1008.5
20260506042507 47 7 5.2 8.7 0.02 0.69 0.01 95 1008.5
20260506042407 47 75 4.3 8.7 0.02 0.69 0.01 95 1008.5
20260506042307 47 30 3.5 8.7 0.02 0.69 0.01 95 1008.5
20260506042207 47 13 3.5 8.7 0.03 0.69 0.01 95 1008.5
20260506042107 47 17 2.6 10.4 0.03 0.69 0.01 95 1008.5
20260506042007 47 6 2.6 10.4 0.03 0.69 0.01 95 1008.5
20260506041907 47 25 3.5 10.4 0.02 0.69 0.00 95 1008.5
20260506041807 47 11 6.1 10.4 0.02 0.69 0.00 95 1008.5
20260506041707 47 359 5.2 10.4 0.02 0.69 0.00 95 1008.5
20260506041607 47 41 4.3 10.4 0.02 0.69 0.00 95 1008.5
20260506041507 47 41 4.3 10.4 0.02 0.69 0.00 95 1008.5
20260506041407 47 49 2.6 10.4 0.02 0.69 0.00 95 1008.5
20260506041307 47 23 4.3 10.4 0.02 0.69 0.00 95 1008.5
20260506041207 47 359 6.1 10.4 0.02 0.69 0.00 95 1008.5
20260506041107 47 11 4.3 9.6 0.02 0.69 0.00 95 1008.5
20260506041007 47 6 5.2 9.6 0.02 0.69 0.00 95 1008.5
20260506040907 47 347 6.1 9.6 0.02 0.69 0.00 95 1008.5
20260506040807 47 18 7.8 9.6 0.02 0.69 0.00 95 1008.5
20260506040707 47 15 6.1 9.6 0.02 0.69 0.00 95 1008.5
20260506040607 47 352 3.5 9.6 0.02 0.69 0.00 95 1008.5
20260506040507 47 0 5.2 9.6 0.02 0.69 0.00 95 1008.5
20260506040407 47 345 3.5 9.6 0.02 0.69 0.00 95 1008.5
20260506040307 47 23 4.3 9.6 0.02 0.69 0.00 95 1008.5
20260506040207 47 332 5.2 9.6 0.02 0.69 0.00 95 1008.8
20260506040107 47 347 5.2 8.7 0.03 0.69 0.00 95 1008.8
20260506040007 47 352 2.6 8.7 0.03 0.69 0.00 95 1008.8
20260506035907 48 11 2.6 8.7 0.03 0.00 0.69 95 1008.8
20260506035807 47 354 4.3 8.7 0.03 0.00 0.69 95 1008.8
20260506035707 47 7 4.3 8.7 0.03 0.00 0.69 95 1009.2
20260506035607 47 3 2.6 8.7 0.03 0.00 0.69 95 1009.2
20260506035507 47 4 5.2 8.7 0.03 0.00 0.69 95 1009.2
20260506035407 47 339 6.1 8.7 0.03 0.00 0.69 95 1009.2
20260506035307 47 3 4.3 8.7 0.03 0.00 0.69 95 1009.2
20260506035207 47 349 6.1 8.7 0.03 0.00 0.69 95 1009.2
20260506035107 47 3 5.2 7.8 0.03 0.00 0.69 95 1009.2
20260506035007 47 339 5.2 7.8 0.03 0.00 0.69 95 1009.2
20260506034907 48 8 3.5 7.8 0.03 0.00 0.69 95 1009.2
20260506034807 47 18 4.3 7.8 0.03 0.00 0.69 95 1009.2
20260506034707 47 6 6.1 8.7 0.03 0.00 0.69 95 1009.2
20260506034607 47 14 5.2 8.7 0.03 0.00 0.69 95 1009.2
20260506034507 47 342 3.5 8.7 0.03 0.00 0.69 95 1009.2
20260506034407 47 353 6.1 8.7 0.03 0.00 0.69 95 1008.8
20260506034307 47 359 6.1 8.7 0.03 0.00 0.69 95 1008.8
20260506034207 48 314 4.3 8.7 0.02 0.00 0.68 95 1008.8
20260506034107 47 318 4.3 8.7 0.02 0.00 0.68 95 1008.8
20260506034007 47 325 4.3 8.7 0.02 0.00 0.68 95 1008.5
20260506033907 47 20 4.3 8.7 0.02 0.00 0.68 95 1008.5
20260506033807 47 15 6.1 8.7 0.02 0.00 0.68 95 1008.5
20260506033707 48 350 4.3 8.7 0.02 0.00 0.68 95 1008.5
20260506033607 47 20 6.1 8.7 0.02 0.00 0.68 95 1008.5
20260506033507 47 346 5.2 8.7 0.02 0.00 0.68 95 1008.5
20260506033407 47 338 4.3 8.7 0.02 0.00 0.68 95 1008.5
20260506033307 47 11 5.2 8.7 0.02 0.00 0.68 95 1008.5
20260506033207 47 336 4.3 8.7 0.02 0.00 0.68 95 1008.5
20260506033107 48 339 3.5 7.8 0.02 0.00 0.68 95 1008.5
20260506033007 47 354 4.3 7.8 0.02 0.00 0.68 95 1008.5
20260506032907 48 38 3.5 7.8 0.02 0.00 0.68 95 1008.5
20260506032807 48 346 2.6 7.8 0.02 0.00 0.68 95 1008.5
20260506032707 47 76 4.3 7.8 0.02 0.00 0.68 95 1008.5
20260506032607 47 0 5.2 7.8 0.02 0.00 0.68 95 1008.5
20260506032507 47 352 6.1 8.7 0.02 0.00 0.68 95 1008.5
20260506032407 47 353 4.3 8.7 0.02 0.00 0.68 95 1008.5
20260506032307 48 8 4.3 8.7 0.02 0.00 0.68 95 1008.5
20260506032207 48 359 2.6 8.7 0.01 0.00 0.67 95 1008.5
20260506032107 48 0 3.5 8.7 0.01 0.00 0.67 95 1008.5
20260506032007 47 8 5.2 8.7 0.01 0.00 0.67 95 1008.5
20260506031907 47 1 4.3 8.7 0.01 0.00 0.67 95 1008.5
20260506031807 47 359 5.2 9.6 0.01 0.00 0.67 95 1008.5
20260506031707 47 31 5.2 9.6 0.01 0.00 0.67 95 1008.5
20260506031607 47 11 5.2 9.6 0.01 0.00 0.67 95 1008.5
20260506031507 47 18 2.6 9.6 0.01 0.00 0.67 95 1008.5
20260506031407 47 23 4.3 9.6 0.01 0.00 0.67 95 1008.5
20260506031307 47 17 5.2 9.6 0.01 0.00 0.67 95 1008.5
20260506031207 48 6 4.3 9.6 0.01 0.00 0.67 95 1008.5
20260506031107 47 346 5.2 11.3 0.01 0.00 0.67 95 1008.5
20260506031007 47 359 5.2 11.3 0.01 0.00 0.67 95 1008.5
20260506030907 47 352 6.1 11.3 0.01 0.00 0.67 95 1008.5
20260506030807 47 346 7.0 11.3 0.01 0.00 0.67 95 1008.5
20260506030707 47 3 3.5 11.3 0.01 0.00 0.67 95 1008.5
20260506030607 47 8 6.1 11.3 0.01 0.00 0.67 95 1008.5
20260506030507 47 316 4.3 11.3 0.01 0.00 0.67 95 1008.5
20260506030407 47 325 5.2 11.3 0.01 0.00 0.67 95 1008.5
20260506030307 47 1 4.3 11.3 0.01 0.00 0.67 95 1008.5
20260506030207 47 27 7.0 11.3 0.01 0.00 0.67 95 1008.5
20260506030107 47 6 4.3 8.7 0.00 0.00 0.66 95 1008.5
20260506030007 47 359 5.2 7.8 0.00 0.00 0.66 95 1008.5
20260506025907 48 332 5.2 8.7 0.01 0.00 0.66 95 1008.5
20260506025807 48 4 4.3 8.7 0.01 0.00 0.66 95 1008.5
20260506025707 48 346 3.5 8.7 0.01 0.00 0.66 95 1008.5
20260506025607 48 326 2.6 8.7 0.01 0.00 0.66 95 1008.5
20260506025507 48 339 4.3 8.7 0.01 0.00 0.66 95 1008.5
20260506025407 48 345 3.5 8.7 0.01 0.00 0.66 95 1008.5
20260506025307 48 359 1.7 8.7 0.01 0.00 0.66 95 1008.5
20260506025207 48 17 1.7 8.7 0.01 0.00 0.66 95 1008.5
20260506025107 48 42 1.7 8.7 0.01 0.00 0.66 95 1008.5
20260506025007 48 10 4.3 8.7 0.01 0.00 0.66 95 1008.5
20260506024907 48 7 4.3 7.0 0.01 0.00 0.66 95 1008.5
20260506024807 48 58 4.3 7.0 0.01 0.00 0.66 95 1008.5
20260506024707 48 52 1.7 7.0 0.01 0.00 0.66 95 1008.5
20260506024607 48 340 4.3 7.0 0.01 0.00 0.66 95 1008.5
20260506024507 48 48 3.5 7.0 0.01 0.00 0.66 95 1008.5
20260506024407 48 56 1.7 7.0 0.01 0.00 0.66 95 1008.5
20260506024307 48 55 2.6 7.0 0.01 0.00 0.66 95 1008.5
20260506024207 48 338 1.7 7.0 0.01 0.00 0.66 95 1008.5
20260506024107 48 60 2.6 7.0 0.01 0.00 0.66 95 1008.5
20260506024007 48 3 1.7 7.0 0.01 0.00 0.66 95 1008.5
20260506023907 48 359 0.0 6.1 0.01 0.00 0.66 95 1008.5
20260506023807 48 352 0.9 6.1 0.01 0.00 0.66 95 1008.5
20260506023707 48 18 0.9 6.1 0.01 0.00 0.66 95 1008.5
20260506023607 48 359 4.3 6.1 0.01 0.00 0.66 95 1008.5
20260506023507 48 76 3.5 7.0 0.01 0.00 0.66 95 1008.5
20260506023407 48 31 0.0 7.0 0.01 0.00 0.66 95 1008.5
20260506023307 48 62 1.7 7.0 0.01 0.00 0.66 95 1008.8
20260506023207 48 30 2.6 7.8 0.01 0.00 0.66 95 1008.8
20260506023107 48 37 2.6 7.8 0.01 0.00 0.66 95 1008.8
20260506023007 48 349 4.3 7.8 0.01 0.00 0.66 95 1008.8
20260506022907 48 359 3.5 7.8 0.01 0.00 0.66 95 1008.8
20260506022807 48 18 2.6 7.8 0.01 0.00 0.66 95 1008.8
20260506022707 48 30 2.6 7.8 0.01 0.00 0.66 95 1008.8
20260506022607 48 72 4.3 7.8 0.01 0.00 0.66 95 1008.8
20260506022507 48 15 3.5 7.8 0.01 0.00 0.66 95 1008.8
20260506022407 48 3 3.5 7.8 0.01 0.00 0.66 95 1008.8
20260506022307 48 353 4.3 7.8 0.01 0.00 0.66 95 1008.8
20260506022207 48 27 2.6 7.8 0.01 0.00 0.66 95 1008.8
20260506022107 48 8 1.7 7.8 0.02 0.00 0.66 95 1008.8
20260506022007 48 359 3.5 7.8 0.02 0.00 0.66 95 1009.2
20260506021907 48 35 4.3 7.8 0.02 0.00 0.66 95 1008.8
20260506021807 48 4 4.3 7.8 0.02 0.00 0.66 95 1008.8
20260506021707 48 32 3.5 7.8 0.02 0.00 0.66 95 1009.2
20260506021607 48 6 4.3 7.8 0.02 0.00 0.66 95 1009.2
20260506021507 48 46 2.6 7.0 0.02 0.00 0.66 95 1009.2
20260506021407 48 23 3.5 7.8 0.02 0.00 0.66 95 1009.2
20260506021307 48 11 2.6 7.8 0.02 0.00 0.66 95 1009.2
20260506021207 48 11 3.5 7.8 0.02 0.00 0.66 95 1009.2
20260506021107 48 349 4.3 7.8 0.02 0.00 0.66 95 1009.2
20260506021007 48 8 4.3 7.8 0.02 0.00 0.66 95 1009.2
20260506020907 48 354 3.5 7.8 0.02 0.00 0.66 95 1009.2
20260506020807 48 359 2.6 7.8 0.02 0.00 0.66 95 1009.2
20260506020707 48 18 3.5 8.7 0.02 0.00 0.66 95 1009.2
20260506020607 48 10 4.3 8.7 0.02 0.00 0.66 95 1009.2
20260506020507 48 359 5.2 8.7 0.02 0.00 0.66 95 1009.2
20260506020407 48 357 4.3 8.7 0.02 0.00 0.66 95 1009.2
20260506020307 48 15 4.3 8.7 0.02 0.00 0.66 95 1009.2
20260506020207 48 18 3.5 8.7 0.02 0.00 0.66 95 1009.2
20260506020107 48 21 2.6 8.7 0.02 0.00 0.66 95 1009.2
20260506020007 48 352 5.2 8.7 0.02 0.00 0.66 95 1009.2
20260506015907 48 17 4.3 8.7 0.01 0.00 0.65 95 1009.2
20260506015807 48 322 5.2 8.7 0.01 0.00 0.65 95 1009.2
20260506015707 48 335 3.5 8.7 0.01 0.00 0.65 95 1009.2
20260506015607 48 335 4.3 8.7 0.01 0.00 0.65 95 1009.2
20260506015507 48 349 6.1 8.7 0.01 0.00 0.65 95 1009.2
20260506015407 48 13 4.3 8.7 0.01 0.00 0.65 95 1008.8
20260506015307 48 343 5.2 8.7 0.01 0.00 0.65 95 1008.8
20260506015207 48 27 5.2 8.7 0.01 0.00 0.65 95 1008.8
20260506015107 48 330 6.1 8.7 0.01 0.00 0.65 95 1008.8
20260506015007 48 311 3.5 7.8 0.01 0.00 0.65 95 1008.8
20260506014907 48 332 4.3 7.8 0.01 0.00 0.65 95 1008.8
20260506014807 48 343 5.2 9.6 0.01 0.00 0.65 95 1008.8
20260506014707 48 353 5.2 9.6 0.01 0.00 0.65 95 1008.8
20260506014607 48 346 3.5 9.6 0.01 0.00 0.65 95 1008.8
20260506014507 48 350 3.5 9.6 0.01 0.00 0.65 95 1008.8
20260506014407 48 328 2.6 9.6 0.01 0.00 0.65 95 1008.8
20260506014307 48 32 4.3 9.6 0.01 0.00 0.65 95 1008.8
20260506014207 48 359 5.2 9.6 0.01 0.00 0.65 95 1008.8
20260506014107 48 353 6.1 9.6 0.01 0.00 0.65 95 1008.8
20260506014007 48 353 4.3 9.6 0.01 0.00 0.65 95 1008.8
20260506013907 48 339 6.1 9.6 0.01 0.00 0.65 95 1008.8
20260506013807 48 338 5.2 8.7 0.01 0.00 0.65 95 1008.8
20260506013707 48 4 5.2 8.7 0.01 0.00 0.65 95 1008.8
20260506013607 48 31 5.2 8.7 0.01 0.00 0.65 95 1008.8
20260506013507 48 347 5.2 8.7 0.01 0.00 0.65 95 1008.8
20260506013407 48 28 5.2 9.6 0.01 0.00 0.65 95 1008.8
20260506013307 48 359 5.2 9.6 0.01 0.00 0.65 95 1008.8
20260506013207 48 347 6.1 9.6 0.01 0.00 0.65 95 1008.8
20260506013107 48 4 5.2 9.6 0.01 0.00 0.65 95 1008.8
20260506013007 48 359 6.1 9.6 0.01 0.00 0.65 95 1008.8
20260506012907 48 359 4.3 9.6 0.01 0.00 0.65 95 1008.8
20260506012807 48 340 5.2 9.6 0.01 0.00 0.65 95 1008.8
20260506012707 48 342 6.1 9.6 0.01 0.00 0.65 95 1008.8
20260506012607 48 356 7.0 9.6 0.01 0.00 0.65 95 1008.8
20260506012507 48 3 7.0 9.6 0.01 0.00 0.65 95 1008.8
20260506012407 48 342 5.2 8.7 0.02 0.00 0.65 95 1008.8
20260506012308 49 353 3.5 8.7 0.02 0.00 0.65 95 1008.8
20260506012207 48 63 6.1 8.7 0.02 0.00 0.65 95 1008.8
20260506012107 49 10 5.2 8.7 0.01 0.00 0.64 95 1008.8
20260506012007 49 359 3.5 8.7 0.01 0.00 0.64 95 1008.8
20260506011907 49 340 4.3 8.7 0.01 0.00 0.64 95 1008.8
20260506011807 49 7 6.1 8.7 0.01 0.00 0.64 95 1009.2
20260506011707 49 0 2.6 6.1 0.01 0.00 0.64 95 1008.8
20260506011607 49 7 3.5 5.2 0.01 0.00 0.64 95 1009.2
20260506011507 49 336 2.6 4.3 0.01 0.00 0.64 95 1009.2
20260506011407 49 354 2.6 4.3 0.01 0.00 0.64 95 1009.2
20260506011307 49 284 0.0 3.5 0.01 0.00 0.64 95 1009.2
20260506011207 49 284 0.0 4.3 0.01 0.00 0.64 95 1009.2
20260506011107 49 284 0.0 6.1 0.01 0.00 0.64 95 1009.2
20260506011007 49 284 0.0 6.1 0.01 0.00 0.64 95 1009.2
20260506010907 49 284 0.0 7.0 0.01 0.00 0.64 95 1009.2
20260506010807 49 284 0.0 7.0 0.01 0.00 0.64 95 1009.2
20260506010707 49 284 0.0 7.0 0.01 0.00 0.64 95 1009.2
20260506010607 49 284 0.0 7.0 0.01 0.00 0.64 95 1009.2
20260506010507 49 284 0.9 7.0 0.01 0.00 0.64 95 1009.2
20260506010407 49 323 2.6 7.0 0.01 0.00 0.64 95 1008.8
20260506010307 49 4 3.5 7.0 0.01 0.00 0.64 95 1008.8
20260506010207 49 349 5.2 7.0 0.01 0.00 0.64 95 1008.8
20260506010107 49 357 5.2 7.0 0.01 0.00 0.64 95 1008.8
20260506010007 49 328 5.2 7.0 0.01 0.00 0.64 95 1008.8
20260506005907 49 353 2.6 6.1 0.02 0.00 0.64 95 1009.2
20260506005807 49 342 2.6 7.0 0.02 0.00 0.64 95 1008.8
20260506005707 49 304 1.7 7.0 0.02 0.00 0.64 95 1009.2
20260506005607 50 314 1.7 7.0 0.02 0.00 0.64 95 1008.8
20260506005507 50 300 3.5 7.0 0.02 0.00 0.64 95 1008.8
20260506005407 49 285 2.6 7.0 0.02 0.00 0.64 95 1008.8
20260506005307 49 332 2.6 7.0 0.02 0.00 0.64 95 1008.8
20260506005207 49 323 1.7 7.0 0.03 0.00 0.64 95 1008.8
20260506005107 49 352 2.6 7.0 0.03 0.00 0.64 95 1008.8
20260506005007 49 349 3.5 7.0 0.03 0.00 0.64 95 1008.8
20260506004907 49 20 5.2 7.0 0.03 0.00 0.64 95 1008.8
20260506004807 50 335 3.5 7.0 0.03 0.00 0.64 95 1008.8
20260506004707 50 340 1.7 7.0 0.03 0.00 0.64 95 1008.8
20260506004607 50 3 0.0 7.0 0.03 0.00 0.64 95 1008.8
20260506004507 50 3 0.9 7.8 0.03 0.00 0.64 95 1008.8
20260506004407 49 39 3.5 9.6 0.03 0.00 0.64 95 1008.5
20260506004307 49 20 4.3 9.6 0.03 0.00 0.64 95 1008.5
20260506004207 49 291 5.2 11.3 0.04 0.00 0.64 95 1008.5
20260506004107 49 354 4.3 11.3 0.04 0.00 0.64 95 1008.5
20260506004007 49 349 2.6 12.2 0.04 0.00 0.64 95 1008.5
20260506003907 49 359 2.6 13.0 0.04 0.00 0.64 95 1008.5
20260506003807 49 30 3.5 13.0 0.05 0.00 0.64 95 1008.5
20260506003707 49 352 5.2 13.0 0.05 0.00 0.64 95 1008.5
20260506003607 49 349 5.2 13.0 0.05 0.00 0.64 95 1008.5
20260506003507 49 300 7.0 13.0 0.05 0.00 0.64 95 1008.5
20260506003407 49 340 6.1 13.0 0.05 0.00 0.64 95 1008.5
20260506003307 49 359 7.0 13.0 0.06 0.00 0.64 95 1008.2
20260506003207 49 342 8.7 13.0 0.06 0.00 0.64 95 1008.5
20260506003107 49 353 9.6 13.0 0.06 0.00 0.64 95 1008.2
20260506003007 49 356 8.7 13.0 0.06 0.00 0.64 95 1008.2